DL9MFL-6 Weather Reports


time (UTC)temp
C
wind
direction
speed
KPH
gust
KPH
rain 1hr
cm
rain 24hr
cm
rain mn
cm
humidity
%
barometer
mb
20260831063654 17 242 11.3 20.9 0.00 0.36 0.36 89 1015.4
20260831063554 16 236 11.3 20.9 0.00 0.36 0.36 89 1015.5
20260831063454 16 228 11.3 20.9 0.00 0.36 0.36 89 1015.5
20260831063354 16 209 12.9 20.9 0.00 0.36 0.36 89 1015.4
20260831063300 16 255 12.9 20.9 0.00 0.36 0.36 89 1015.4
20260831063254 16 277 12.9 20.9 0.00 0.36 0.36 89 1015.4
20260831063154 16 220 12.9 17.7 0.00 0.36 0.36 90 1015.4
20260831063054 16 271 12.9 19.3 0.00 0.36 0.36 90 1015.5
20260831062955 16 247 12.9 19.3 0.00 0.36 0.36 90 1015.5
20260831062854 16 284 12.9 19.3 0.00 0.36 0.36 90 1015.4
20260831062800 16 233 12.9 20.9 0.00 0.36 0.36 90 1015.4
20260831062755 16 259 12.9 20.9 0.00 0.36 0.36 90 1015.4
20260831062655 16 261 12.9 20.9 0.00 0.36 0.36 90 1015.4
20260831062555 16 289 12.9 20.9 0.00 0.36 0.36 90 1015.4
20260831062454 16 228 12.9 20.9 0.00 0.36 0.36 90 1015.4
20260831062355 16 267 12.9 20.9 0.00 0.36 0.36 90 1015.4
20260831062301 16 244 12.9 20.9 0.00 0.36 0.36 90 1015.4
20260831062254 16 286 12.9 20.9 0.00 0.36 0.36 90 1015.4
20260831062154 16 277 11.3 20.9 0.00 0.36 0.36 90 1015.3
20260831062054 16 295 11.3 20.9 0.00 0.36 0.36 90 1015.4
20260831062025 16 261 11.3 20.9 0.00 0.36 0.36 91 1015.4
20260831062020 16 265 11.3 20.9 0.00 0.36 0.36 90 1015.4
20260831062012 16 274 11.3 20.9 0.00 0.36 0.36 91 1015.4
20260831061748 16 252 11.3 20.9 0.00 0.36 0.36 91 1015.4
20260831061648 16 299 11.3 20.9 0.00 0.36 0.36 91 1015.3
20260831061548 16 279 9.7 20.9 0.00 0.36 0.36 91 1015.4
20260831061525 16 250 9.7 17.7 0.00 0.36 0.36 91 1015.4
20260831061520 16 271 9.7 20.9 0.00 0.36 0.36 91 1015.4
20260831061511 16 244 9.7 20.9 0.00 0.36 0.36 91 1015.5
20260831061242 16 285 9.7 17.7 0.00 0.36 0.36 91 1015.4
20260831061140 16 248 9.7 17.7 0.00 0.36 0.36 91 1015.4
20260831061040 16 273 9.7 14.5 0.00 0.36 0.36 91 1015.3
20260831060940 16 254 9.7 14.5 0.00 0.36 0.36 91 1015.4
20260831060839 16 278 9.7 14.5 0.00 0.36 0.36 91 1015.3
20260831060800 16 271 9.7 14.5 0.00 0.36 0.36 91 1015.3
20260831060734 16 248 9.7 14.5 0.00 0.36 0.36 91 1015.3
20260831060635 16 273 8.0 14.5 0.00 0.36 0.36 91 1015.3
20260831060535 16 260 8.0 14.5 0.00 0.36 0.36 91 1015.3
20260831060435 16 248 8.0 14.5 0.00 0.36 0.36 91 1015.3
20260831060334 16 271 8.0 14.5 0.00 0.36 0.36 91 1015.3
20260831060301 16 244 8.0 14.5 0.00 0.36 0.36 91 1015.3
20260831060234 16 240 8.0 14.5 0.00 0.36 0.36 91 1015.3
20260831060132 16 243 8.0 14.5 0.00 0.36 0.36 91 1015.3
20260831060032 16 227 8.0 14.5 0.00 0.36 0.36 91 1015.3
20260831055930 16 248 8.0 14.5 0.00 0.36 0.36 91 1015.3
20260831055831 16 232 6.4 12.9 0.00 0.36 0.36 91 1015.3
20260831055800 16 215 6.4 12.9 0.00 0.36 0.36 92 1015.3
20260831055731 16 267 6.4 12.9 0.00 0.36 0.36 92 1015.3
20260831055631 16 261 6.4 12.9 0.00 0.36 0.36 91 1015.3
20260831055530 16 277 6.4 12.9 0.00 0.36 0.36 91 1015.3
20260831055523 16 262 6.4 12.9 0.00 0.36 0.36 91 1015.3
20260831055519 16 262 6.4 12.9 0.00 0.36 0.36 91 1015.3
20260831055511 16 269 6.4 12.9 0.00 0.36 0.36 91 1015.3
20260831055229 16 247 6.4 12.9 0.00 0.36 0.36 91 1015.3
20260831055129 16 247 6.4 11.3 0.00 0.36 0.36 91 1015.3
20260831055029 16 242 4.8 11.3 0.00 0.36 0.36 92 1015.3
20260831054929 16 223 4.8 11.3 0.00 0.36 0.36 91 1015.3
20260831054829 16 220 4.8 11.3 0.00 0.36 0.36 91 1015.3
20260831054801 16 215 4.8 11.3 0.00 0.36 0.36 91 1015.3
20260831054729 16 237 4.8 11.3 0.00 0.36 0.36 91 1015.3
20260831054629 16 277 4.8 11.3 0.00 0.36 0.36 91 1015.2
20260831054529 16 273 4.8 11.3 0.00 0.36 0.36 91 1015.3
20260831054429 16 290 4.8 14.5 0.00 0.36 0.36 91 1015.3
20260831054329 16 258 4.8 14.5 0.00 0.36 0.36 91 1015.2
20260831054301 16 261 4.8 14.5 0.00 0.36 0.36 91 1015.2
20260831054229 16 261 4.8 14.5 0.00 0.36 0.36 91 1015.2
20260831054128 16 238 4.8 14.5 0.00 0.36 0.36 91 1015.2
20260831054029 16 267 6.4 14.5 0.00 0.36 0.36 91 1015.2
20260831053929 16 250 6.4 14.5 0.00 0.36 0.36 91 1015.2
20260831053829 16 243 6.4 14.5 0.00 0.36 0.36 91 1015.1
20260831053801 16 274 6.4 14.5 0.00 0.36 0.36 91 1015.2
20260831053729 16 263 6.4 14.5 0.00 0.36 0.36 91 1015.2
20260831053629 16 265 6.4 14.5 0.00 0.36 0.36 91 1015.1
20260831053529 16 235 6.4 14.5 0.00 0.36 0.36 91 1015.1
20260831053429 16 253 6.4 14.5 0.00 0.36 0.36 91 1015.2
20260831053329 16 275 6.4 14.5 0.00 0.36 0.36 91 1015.1
20260831053300 16 284 6.4 14.5 0.00 0.36 0.36 91 1015.2
20260831053229 16 215 6.4 14.5 0.00 0.36 0.36 91 1015.2
20260831053129 16 225 6.4 14.5 0.00 0.36 0.36 91 1015.1
20260831053028 16 231 8.0 16.1 0.00 0.36 0.36 91 1015.2
20260831052928 16 252 8.0 16.1 0.00 0.36 0.36 91 1015.2
20260831052829 16 252 8.0 16.1 0.00 0.36 0.36 91 1015.2
20260831052801 16 225 6.4 16.1 0.00 0.36 0.36 91 1015.1
20260831052728 16 223 6.4 16.1 0.00 0.36 0.36 91 1015.1
20260831052628 16 247 6.4 16.1 0.00 0.36 0.36 91 1015.2
20260831052528 16 238 6.4 16.1 0.00 0.36 0.36 91 1015.1
20260831052425 16 229 6.4 16.1 0.00 0.36 0.36 91 1015.2
20260831052320 16 217 6.4 16.1 0.00 0.36 0.36 91 1015.1
20260831052301 16 269 6.4 16.1 0.00 0.36 0.36 91 1015.1
20260831052220 16 227 6.4 16.1 0.00 0.36 0.36 91 1015.1
20260831052121 16 242 6.4 16.1 0.00 0.36 0.36 91 1015.1
20260831052021 16 220 6.4 12.9 0.00 0.36 0.36 91 1015.1
20260831051917 16 221 6.4 12.9 0.00 0.36 0.36 91 1015.1
20260831051817 16 244 6.4 14.5 0.00 0.36 0.36 91 1015.1
20260831051801 16 232 6.4 14.5 0.00 0.36 0.36 91 1015.1
20260831051716 16 232 6.4 14.5 0.00 0.36 0.36 91 1015.1
20260831051614 16 240 6.4 14.5 0.00 0.36 0.36 91 1015.1
20260831051514 16 242 6.4 14.5 0.00 0.36 0.36 91 1015.2
20260831051412 16 251 6.4 14.5 0.00 0.36 0.36 91 1015.1
20260831051306 16 244 6.4 14.5 0.00 0.36 0.36 90 1015.1
20260831051301 16 230 6.4 14.5 0.00 0.36 0.36 90 1015.1
20260831051206 16 249 6.4 14.5 0.00 0.36 0.36 90 1015.1
20260831051107 16 273 6.4 14.5 0.00 0.36 0.36 91 1015.1
20260831051007 16 260 6.4 14.5 0.00 0.36 0.36 91 1015.1
20260831050905 16 267 6.4 14.5 0.00 0.36 0.36 91 1015.1
20260831050801 16 255 6.4 16.1 0.00 0.36 0.36 90 1015.1
20260831050707 16 276 8.0 16.1 0.00 0.36 0.36 90 1015.1
20260831050606 16 231 8.0 20.9 0.00 0.36 0.36 90 1015.1
20260831050506 16 256 8.0 20.9 0.00 0.36 0.36 90 1015.1
20260831050406 16 208 8.0 20.9 0.00 0.36 0.36 90 1015.1
20260831050306 16 230 8.0 20.9 0.00 0.36 0.36 90 1015.1
20260831050301 16 229 8.0 20.9 0.00 0.36 0.36 90 1015.1
20260831050206 16 224 9.7 20.9 0.00 0.36 0.36 90 1015.0
20260831050107 16 225 9.7 20.9 0.00 0.36 0.36 90 1015.1
20260831050005 16 269 9.7 20.9 0.00 0.36 0.36 90 1015.1
20260831045904 16 260 9.7 20.9 0.00 0.36 0.36 90 1015.1
20260831045801 16 219 9.7 20.9 0.00 0.36 0.36 90 1015.0
20260831045702 16 212 9.7 20.9 0.00 0.36 0.36 90 1015.0
20260831045602 16 183 9.7 17.7 0.00 0.36 0.36 91 1015.0
20260831045502 16 234 8.0 17.7 0.00 0.36 0.36 91 1015.0
20260831045401 16 260 9.7 17.7 0.00 0.36 0.36 91 1015.1
20260831045301 16 226 9.7 17.7 0.00 0.36 0.36 91 1015.1
20260831045201 16 240 9.7 22.5 0.00 0.36 0.36 91 1015.0
20260831045101 16 236 9.7 22.5 0.00 0.36 0.36 91 1015.0
20260831045001 16 230 9.7 22.5 0.00 0.36 0.36 91 1015.0
20260831044901 16 221 9.7 22.5 0.00 0.36 0.36 91 1014.9
20260831044801 16 219 9.7 22.5 0.00 0.38 0.36 91 1015.0
20260831044702 16 223 9.7 22.5 0.00 0.38 0.36 91 1014.9
20260831044601 16 219 9.7 22.5 0.00 0.38 0.36 91 1015.0
20260831044501 16 258 9.7 22.5 0.00 0.38 0.36 91 1014.9
20260831044401 15 209 9.7 22.5 0.00 0.38 0.36 91 1014.8
20260831044301 15 216 9.7 22.5 0.00 0.38 0.36 91 1014.9
20260831044201 15 211 9.7 20.9 0.00 0.38 0.36 91 1014.9
20260831044101 15 193 9.7 19.3 0.00 0.38 0.36 91 1014.9
20260831044001 15 200 9.7 19.3 0.00 0.38 0.36 91 1014.8
20260831043901 15 216 9.7 22.5 0.00 0.38 0.36 91 1014.8
20260831043801 15 222 9.7 22.5 0.00 0.38 0.36 91 1014.9
20260831043701 15 236 9.7 22.5 0.00 0.38 0.36 91 1014.9
20260831043601 15 221 9.7 22.5 0.00 0.38 0.36 91 1014.9
20260831043501 15 221 9.7 22.5 0.00 0.38 0.36 91 1014.9
20260831043400 15 211 9.7 22.5 0.00 0.38 0.36 91 1014.9
20260831043300 15 205 9.7 22.5 0.00 0.38 0.36 91 1014.9
20260831043200 15 204 9.7 22.5 0.00 0.38 0.36 91 1014.9
20260831043100 15 228 9.7 22.5 0.00 0.38 0.36 91 1014.9
20260831043001 15 213 8.0 22.5 0.00 0.38 0.36 91 1015.0
20260831042901 15 212 9.7 19.3 0.00 0.38 0.36 91 1014.8
20260831042801 15 209 9.7 17.7 0.00 0.38 0.36 91 1015.0
20260831042701 15 255 9.7 17.7 0.00 0.38 0.36 91 1014.9
20260831042601 15 242 9.7 17.7 0.00 0.38 0.36 91 1014.9
20260831042500 15 248 9.7 19.3 0.00 0.38 0.36 91 1014.9
20260831042401 15 207 9.7 19.3 0.00 0.38 0.36 91 1014.9
20260831042301 15 221 9.7 19.3 0.00 0.38 0.36 90 1014.9
20260831042201 15 238 9.7 19.3 0.00 0.38 0.36 91 1014.9
20260831042101 15 231 8.0 19.3 0.00 0.38 0.36 91 1014.9
20260831042001 15 220 8.0 19.3 0.00 0.38 0.36 91 1014.9
20260831041901 15 234 8.0 20.9 0.00 0.38 0.36 91 1014.9
20260831041801 15 221 8.0 20.9 0.00 0.38 0.36 91 1014.9
20260831041701 15 248 8.0 20.9 0.00 0.38 0.36 90 1014.8
20260831041601 15 216 8.0 20.9 0.00 0.38 0.36 90 1014.8
20260831041501 15 205 8.0 20.9 0.00 0.38 0.36 90 1014.9
20260831041401 15 234 8.0 20.9 0.00 0.38 0.36 90 1014.9
20260831041301 15 246 8.0 20.9 0.00 0.38 0.36 91 1014.9
20260831041201 15 218 8.0 20.9 0.00 0.38 0.36 91 1014.8
20260831041101 15 234 9.7 20.9 0.00 0.38 0.36 91 1014.8
20260831041000 15 231 9.7 22.5 0.00 0.38 0.36 91 1014.8
20260831040900 15 254 9.7 22.5 0.00 0.38 0.36 91 1014.8
20260831040801 15 259 9.7 22.5 0.00 0.38 0.36 91 1014.8
20260831040700 15 232 9.7 22.5 0.00 0.38 0.36 91 1014.7
20260831040600 15 228 8.0 22.5 0.00 0.38 0.36 91 1014.8
20260831040524 15 220 8.0 22.5 0.00 0.38 0.36 90 1014.7
20260831040520 15 219 8.0 22.5 0.00 0.38 0.36 90 1014.8
20260831040513 15 220 8.0 22.5 0.00 0.38 0.36 91 1014.8
20260831040200 15 194 8.0 22.5 0.00 0.38 0.36 91 1014.8
20260831040100 15 222 6.4 22.5 0.00 0.38 0.36 91 1014.8
20260831040023 15 196 8.0 14.5 0.00 0.38 0.36 91 1014.7
20260831040020 15 225 6.4 14.5 0.00 0.38 0.36 91 1014.8
20260831040012 15 194 6.4 14.5 0.00 0.38 0.36 91 1014.7
20260831035701 15 227 6.4 14.5 0.00 0.38 0.36 91 1014.8
20260831035601 15 202 6.4 16.1 0.00 0.38 0.36 91 1014.8
20260831035502 15 217 6.4 16.1 0.00 0.38 0.36 91 1014.7
20260831035401 15 221 6.4 16.1 0.00 0.38 0.36 91 1014.7
20260831035306 15 178 6.4 16.1 0.00 0.38 0.36 91 1014.6
20260831035201 15 198 6.4 16.1 0.00 0.38 0.36 91 1014.7
20260831035101 15 229 6.4 16.1 0.00 0.38 0.36 91 1014.6
20260831035025 15 206 6.4 16.1 0.00 0.38 0.36 91 1014.6
20260831035021 15 225 6.4 16.1 0.00 0.38 0.36 91 1014.6
20260831035014 15 225 6.4 16.1 0.00 0.38 0.36 90 1014.6
20260831034701 15 227 8.0 16.1 0.03 0.38 0.36 91 1014.6
20260831034601 15 204 8.0 16.1 0.03 0.38 0.36 91 1014.6
20260831034501 15 259 8.0 17.7 0.03 0.38 0.36 91 1014.6
20260831034401 15 234 6.4 17.7 0.03 0.38 0.36 91 1014.6
20260831034301 15 212 6.4 17.7 0.03 0.38 0.36 91 1014.6
20260831034201 15 205 6.4 17.7 0.03 0.38 0.36 91 1014.7
20260831034101 15 198 6.4 17.7 0.03 0.38 0.36 91 1014.6
20260831034023 15 209 6.4 17.7 0.05 0.38 0.36 91 1014.7
20260831034019 15 216 6.4 17.7 0.05 0.38 0.36 91 1014.7
20260831034011 15 203 6.4 17.7 0.05 0.38 0.36 91 1014.7
20260831033701 15 190 6.4 17.7 0.05 0.38 0.36 91 1014.7
20260831033601 15 226 6.4 17.7 0.05 0.38 0.36 91 1014.7
20260831033501 15 199 6.4 14.5 0.05 0.38 0.36 91 1014.8
20260831033400 15 219 6.4 14.5 0.05 0.38 0.36 91 1014.8
20260831033301 15 207 6.4 14.5 0.08 0.38 0.36 91 1014.7
20260831033200 15 217 6.4 14.5 0.08 0.38 0.36 91 1014.8
20260831033100 15 217 6.4 12.9 0.08 0.38 0.36 91 1014.7
20260831033023 15 214 6.4 12.9 0.08 0.38 0.36 91 1014.6
20260831033019 15 248 6.4 12.9 0.08 0.38 0.36 91 1014.8
20260831033012 15 207 6.4 12.9 0.08 0.38 0.36 91 1014.7
20260831032701 15 221 6.4 12.9 0.10 0.38 0.36 91 1014.7
20260831032601 15 209 6.4 12.9 0.10 0.38 0.36 91 1014.7
20260831032501 15 207 6.4 14.5 0.10 0.38 0.36 91 1014.8
20260831032401 15 206 6.4 14.5 0.13 0.38 0.36 91 1014.8
20260831032301 15 233 6.4 14.5 0.15 0.38 0.36 91 1014.8
20260831032201 15 235 6.4 14.5 0.15 0.38 0.36 91 1014.8
20260831032101 15 227 6.4 14.5 0.20 0.38 0.36 91 1014.8
20260831032025 15 210 6.4 14.5 0.20 0.38 0.36 91 1014.8
20260831032021 15 215 6.4 14.5 0.23 0.38 0.36 92 1014.8
20260831032013 15 211 6.4 14.5 0.25 0.38 0.36 92 1014.8
20260831031701 15 236 6.4 14.5 0.28 0.38 0.36 92 1014.8
20260831031601 15 243 6.4 14.5 0.30 0.38 0.36 92 1014.8
20260831031501 15 215 6.4 12.9 0.30 0.38 0.36 92 1014.8
20260831031401 15 259 4.8 12.9 0.30 0.38 0.36 92 1014.8
20260831031301 15 232 4.8 12.9 0.30 0.38 0.36 92 1014.7
20260831031201 15 218 4.8 12.9 0.30 0.38 0.36 92 1014.8
20260831031101 15 285 4.8 12.9 0.30 0.38 0.36 92 1014.8
20260831031000 15 230 4.8 12.9 0.30 0.38 0.36 92 1014.8
20260831030900 15 257 4.8 12.9 0.30 0.38 0.36 92 1014.8
20260831030802 15 225 4.8 12.9 0.30 0.38 0.36 92 1014.8
20260831030758 16 225 4.8 12.9 0.30 0.38 0.36 92 1014.8
20260831030658 15 225 4.8 12.9 0.30 0.38 0.36 92 1014.8
20260831030558 16 246 4.8 12.9 0.30 0.38 0.36 92 1014.9
20260831030458 15 227 4.8 9.7 0.30 0.38 0.36 92 1014.9
20260831030356 15 219 4.8 9.7 0.30 0.38 0.36 91 1014.9
20260831030301 16 219 4.8 9.7 0.33 0.38 0.36 91 1014.9
20260831030255 16 219 4.8 9.7 0.33 0.38 0.36 91 1014.9
20260831030153 16 219 4.8 9.7 0.33 0.38 0.36 91 1014.9
20260831030054 16 228 4.8 9.7 0.33 0.38 0.36 91 1014.9
20260831025951 16 223 4.8 9.7 0.33 0.38 0.36 91 1014.9
20260831025848 16 223 4.8 9.7 0.33 0.38 0.36 91 1014.9
20260831025800 16 221 3.2 9.7 0.33 0.38 0.36 91 1014.9
20260831025746 16 221 3.2 9.7 0.33 0.38 0.36 91 1014.9
20260831025646 16 220 3.2 9.7 0.33 0.38 0.36 91 1014.9
20260831025546 16 225 3.2 9.7 0.33 0.38 0.36 91 1014.9
20260831025528 16 315 3.2 6.4 0.36 0.38 0.36 91 1014.3
20260831025520 16 219 3.2 8.0 0.33 0.38 0.36 91 1014.8
20260831025516 16 228 3.2 6.4 0.36 0.38 0.36 91 1014.5
20260831025240 16 320 3.2 6.4 0.36 0.38 0.36 91 1014.3
20260831025140 16 320 3.2 9.7 0.36 0.38 0.36 91 1014.1
20260831025039 16 320 3.2 9.7 0.36 0.38 0.36 90 1013.9
20260831024939 16 320 4.8 9.7 0.36 0.38 0.36 90 1013.9
20260831024838 16 320 4.8 11.3 0.36 0.38 0.33 90 1014.2
20260831024801 16 265 4.8 11.3 0.36 0.38 0.33 90 1014.3
20260831024738 16 264 4.8 11.3 0.33 0.36 0.33 90 1014.3
20260831024635 16 263 4.8 11.3 0.33 0.36 0.33 90 1014.4
20260831024535 16 264 4.8 11.3 0.33 0.36 0.33 90 1014.5
20260831024433 16 260 6.4 11.3 0.33 0.36 0.33 90 1014.7
20260831024332 16 254 6.4 11.3 0.33 0.36 0.33 90 1014.9
20260831024301 16 258 6.4 12.9 0.33 0.36 0.33 90 1015.0
20260831024232 16 259 6.4 12.9 0.33 0.36 0.33 90 1015.0
20260831024132 16 263 6.4 12.9 0.33 0.36 0.33 90 1015.0
20260831024032 16 257 6.4 12.9 0.33 0.36 0.33 90 1015.0
20260831024028 16 245 6.4 12.9 0.33 0.33 0.33 90 1015.2
20260831024015 16 241 6.4 12.9 0.33 0.33 0.33 90 1015.2
20260831024011 16 243 6.4 12.9 0.33 0.33 0.33 90 1015.2
20260831023732 16 250 6.4 12.9 0.33 0.33 0.30 90 1015.2
20260831023632 16 259 6.4 12.9 0.30 0.33 0.30 89 1015.2
20260831023532 16 263 8.0 19.3 0.30 0.33 0.30 89 1015.2
20260831023432 16 245 8.0 19.3 0.30 0.33 0.28 89 1015.2
20260831023332 16 267 9.7 19.3 0.28 0.30 0.28 89 1015.2
20260831023301 16 265 9.7 20.9 0.28 0.30 0.28 89 1015.1
20260831023232 16 261 9.7 24.1 0.28 0.30 0.28 89 1015.1
20260831023131 16 264 11.3 24.1 0.28 0.30 0.28 89 1015.1
20260831023029 16 284 12.9 24.1 0.28 0.30 0.28 89 1015.2
20260831022930 16 236 12.9 24.1 0.28 0.30 0.28 88 1015.3
20260831022829 16 273 14.5 24.1 0.28 0.30 0.28 89 1015.4
20260831022801 16 275 14.5 24.1 0.28 0.30 0.25 88 1015.4
20260831022729 16 277 14.5 24.1 0.28 0.30 0.25 88 1015.4
20260831022628 16 273 16.1 25.7 0.25 0.28 0.25 88 1015.4
20260831022528 16 262 16.1 25.7 0.25 0.28 0.23 88 1015.6
20260831022428 16 269 16.1 25.7 0.23 0.25 0.23 88 1015.6
20260831022328 16 257 16.1 25.7 0.23 0.23 0.23 88 1015.6
20260831022301 16 234 16.1 25.7 0.23 0.23 0.20 88 1015.7
20260831022227 16 254 16.1 29.0 0.20 0.23 0.15 88 1015.7
20260831022122 16 265 16.1 29.0 0.18 0.20 0.15 88 1016.0
20260831022022 16 274 16.1 29.0 0.15 0.18 0.15 88 1016.0
20260831021922 16 282 16.1 29.0 0.15 0.15 0.15 88 1015.8
20260831021821 16 278 16.1 29.0 0.13 0.15 0.10 87 1016.1
20260831021801 16 259 16.1 29.0 0.10 0.13 0.08 87 1016.1
20260831021721 16 269 16.1 29.0 0.08 0.10 0.08 87 1016.1
20260831021616 16 253 16.1 29.0 0.05 0.08 0.05 87 1015.7
20260831021516 16 248 16.1 29.0 0.05 0.08 0.05 87 1016.1
20260831021416 16 262 17.7 29.0 0.05 0.08 0.05 87 1015.6
20260831021316 16 246 16.1 29.0 0.05 0.08 0.05 87 1015.7
20260831021301 16 259 16.1 29.0 0.05 0.08 0.05 87 1015.7
20260831021215 16 278 16.1 27.4 0.05 0.08 0.05 87 1015.6
20260831021110 16 263 16.1 29.0 0.05 0.08 0.05 87 1015.7
20260831021010 16 271 16.1 29.0 0.05 0.08 0.05 87 1015.6
20260831020910 16 271 16.1 29.0 0.05 0.08 0.05 86 1015.4
20260831020809 16 285 16.1 29.0 0.05 0.08 0.05 86 1015.6
20260831020800 16 249 16.1 29.0 0.05 0.08 0.05 86 1015.6
20260831020710 17 256 16.1 29.0 0.05 0.08 0.05 86 1015.4
20260831020603 17 295 16.1 43.5 0.05 0.08 0.05 86 1015.4
20260831020503 17 286 17.7 43.5 0.05 0.08 0.05 87 1015.1
20260831020404 17 252 17.7 46.7 0.05 0.08 0.05 87 1014.9
20260831020304 17 259 19.3 46.7 0.05 0.05 0.05 87 1014.8
20260831020300 17 269 19.3 46.7 0.05 0.05 0.05 87 1014.8
20260831020203 17 264 19.3 46.7 0.05 0.05 0.05 87 1014.8
20260831020002 17 254 19.3 46.7 0.05 0.05 0.05 87 1014.8
20260831015901 17 313 19.3 46.7 0.05 0.05 0.05 87 1014.7
20260831015802 17 287 17.7 46.7 0.05 0.05 0.05 87 1015.0
20260831015701 17 257 16.1 46.7 0.05 0.05 0.03 87 1014.9
20260831015602 17 267 14.5 46.7 0.03 0.05 0.03 86 1014.9
20260831015520 17 302 12.9 46.7 0.03 0.05 0.00 86 1015.0
20260831015516 17 290 9.7 30.6 0.00 0.03 0.00 86 1014.7
20260831015512 17 313 8.0 30.6 0.00 0.03 0.00 86 1014.7
20260831015202 17 273 6.4 27.4 0.00 0.03 0.00 86 1014.6
20260831015101 17 294 4.8 25.7 0.00 0.03 0.00 86 1014.4
20260831015001 17 271 3.2 20.9 0.00 0.03 0.00 86 1014.3
20260831014901 17 288 1.6 17.7 0.00 0.03 0.00 86 1013.7
20260831014801 17 273 0.0 11.3 0.00 0.03 0.00 85 1013.2
20260831014701 17 249 0.0 6.4 0.00 0.03 0.00 85 1012.8
20260831014601 17 105 0.0 3.2 0.00 0.03 0.00 85 1012.6
20260831014500 17 105 0.0 1.6 0.00 0.03 0.00 85 1012.5
20260831014400 17 105 0.0 1.6 0.00 0.03 0.00 85 1012.4
20260831014301 17 105 0.0 1.6 0.00 0.03 0.00 85 1012.4
20260831014201 17 105 0.0 1.6 0.00 0.03 0.00 85 1012.3
20260831014059 17 105 0.0 1.6 0.00 0.03 0.00 85 1012.1
20260831013957 17 105 0.0 1.6 0.00 0.03 0.00 85 1012.3
20260831013852 17 105 0.0 3.2 0.00 0.03 0.00 85 1012.3
20260831013801 17 105 0.0 3.2 0.00 0.03 0.00 85 1012.3
20260831013752 17 105 0.0 3.2 0.00 0.03 0.00 85 1012.3
20260831013652 17 105 0.0 3.2 0.00 0.03 0.00 85 1012.3
20260831013552 17 105 0.0 3.2 0.00 0.03 0.00 85 1012.3
20260831013451 17 105 0.0 3.2 0.00 0.03 0.00 85 1012.3
20260831013351 17 105 0.0 3.2 0.00 0.03 0.00 85 1012.3
20260831013300 17 105 0.0 3.2 0.00 0.03 0.00 85 1012.3
20260831013250 17 105 0.0 3.2 0.00 0.03 0.00 85 1012.3
20260831013149 17 105 1.6 3.2 0.00 0.03 0.00 85 1012.3
20260831013048 17 105 0.0 3.2 0.00 0.03 0.00 85 1012.3
20260831012946 17 105 0.0 3.2 0.00 0.03 0.00 85 1012.3
20260831012844 17 105 1.6 3.2 0.00 0.03 0.00 85 1012.3
20260831012801 17 105 1.6 3.2 0.00 0.03 0.00 84 1012.3
20260831012744 17 105 1.6 3.2 0.00 0.03 0.00 84 1012.3
20260831012644 17 105 1.6 3.2 0.00 0.03 0.00 84 1012.3
20260831012542 17 105 1.6 3.2 0.00 0.03 0.00 85 1012.3
20260831012441 17 105 1.6 3.2 0.00 0.03 0.00 85 1012.3
20260831012342 17 105 1.6 3.2 0.00 0.03 0.00 85 1012.3
20260831012300 17 105 1.6 3.2 0.00 0.03 0.00 85 1012.4
20260831012241 17 105 1.6 3.2 0.00 0.03 0.00 85 1012.4
20260831012139 17 105 1.6 3.2 0.00 0.03 0.00 85 1012.4
20260831012040 17 104 1.6 3.2 0.00 0.03 0.00 85 1012.4
20260831012028 17 105 1.6 4.8 0.00 0.03 0.00 85 1012.4
20260831012017 17 105 1.6 3.2 0.00 0.03 0.00 85 1012.4
20260831012013 17 105 1.6 3.2 0.00 0.03 0.00 85 1012.3
20260831011740 17 105 1.6 4.8 0.00 0.03 0.00 85 1012.4
20260831011640 17 105 1.6 4.8 0.00 0.03 0.00 85 1012.4
20260831011540 17 105 1.6 4.8 0.00 0.03 0.00 85 1012.4
20260831011440 17 105 1.6 4.8 0.00 0.03 0.00 85 1012.4
20260831011339 17 105 1.6 4.8 0.00 0.03 0.00 85 1012.4
20260831011301 17 105 1.6 4.8 0.00 0.03 0.00 85 1012.4
20260831011237 17 105 1.6 4.8 0.00 0.03 0.00 85 1012.4
20260831011136 17 105 1.6 4.8 0.00 0.03 0.00 85 1012.5
20260831011036 17 105 1.6 4.8 0.00 0.03 0.00 85 1012.4
20260831010934 17 105 1.6 4.8 0.00 0.03 0.00 85 1012.4
20260831010834 17 105 1.6 4.8 0.00 0.03 0.00 85 1012.4
20260831010801 17 105 1.6 4.8 0.00 0.03 0.00 85 1012.4
20260831010733 17 105 1.6 4.8 0.00 0.03 0.00 85 1012.4
20260831010632 17 106 1.6 3.2 0.00 0.03 0.00 85 1012.4
20260831010531 17 107 1.6 3.2 0.00 0.03 0.00 85 1012.4
20260831010431 17 106 0.0 3.2 0.00 0.03 0.00 85 1012.4
20260831010301 17 107 0.0 3.2 0.00 0.03 0.00 85 1012.5
20260831010230 17 107 0.0 3.2 0.00 0.03 0.00 85 1012.5
20260831010129 17 107 0.0 4.8 0.00 0.03 0.00 85 1012.5
20260831010029 17 107 0.0 4.8 0.00 0.03 0.00 85 1012.5
20260831005930 17 107 1.6 4.8 0.00 0.03 0.00 85 1012.5
20260831005801 17 107 1.6 4.8 0.00 0.03 0.00 85 1012.5
20260831005729 17 107 1.6 4.8 0.00 0.03 0.00 85 1012.5
20260831005629 17 107 1.6 4.8 0.00 0.03 0.00 85 1012.6
20260831005529 17 107 1.6 4.8 0.00 0.03 0.00 85 1012.6
20260831005429 17 107 1.6 4.8 0.00 0.03 0.00 85 1012.6
20260831005329 17 107 1.6 4.8 0.00 0.03 0.00 85 1012.6
20260831005301 17 107 1.6 4.8 0.00 0.03 0.00 85 1012.7
20260831005229 17 107 1.6 4.8 0.00 0.03 0.00 85 1012.7
20260831005129 17 107 1.6 4.8 0.00 0.03 0.00 85 1012.7
20260831005029 17 107 1.6 4.8 0.00 0.03 0.00 85 1012.7
20260831004929 17 107 1.6 4.8 0.00 0.03 0.00 85 1012.7
20260831004829 17 107 1.6 4.8 0.00 0.03 0.00 85 1012.7
20260831004801 17 107 0.0 4.8 0.00 0.03 0.00 85 1012.7
20260831004729 17 107 0.0 4.8 0.00 0.03 0.00 85 1012.7
20260831004629 17 107 0.0 4.8 0.00 0.03 0.00 85 1012.7
20260831004529 17 105 0.0 3.2 0.00 0.03 0.00 85 1012.7
20260831004515 17 105 0.0 3.2 0.00 0.03 0.00 85 1012.7
20260831004511 17 106 0.0 3.2 0.00 0.03 0.00 85 1012.7
20260831004228 17 106 0.0 3.2 0.00 0.03 0.00 85 1012.7
20260831004128 17 106 0.0 3.2 0.00 0.03 0.00 85 1012.7
20260831004029 17 106 0.0 3.2 0.00 0.03 0.00 85 1012.7
20260831003929 17 106 0.0 3.2 0.00 0.03 0.00 85 1012.7
20260831003800 17 106 0.0 3.2 0.00 0.03 0.00 85 1012.7
20260831003729 17 106 0.0 3.2 0.00 0.03 0.00 85 1012.7
20260831003629 17 106 1.6 3.2 0.00 0.03 0.00 85 1012.7
20260831003529 17 106 1.6 3.2 0.00 0.03 0.00 85 1012.7
20260831003515 17 106 1.6 3.2 0.00 0.03 0.00 85 1012.7
20260831003511 17 106 1.6 3.2 0.00 0.03 0.00 85 1012.7
20260831003224 17 106 1.6 3.2 0.00 0.03 0.00 85 1012.7
20260831003122 17 106 0.0 3.2 0.00 0.03 0.00 85 1012.7
20260831003022 17 106 1.6 3.2 0.00 0.03 0.00 85 1012.8
20260831002922 17 106 1.6 3.2 0.00 0.03 0.00 85 1012.8
20260831002801 17 106 1.6 3.2 0.00 0.03 0.00 85 1012.7
20260831002721 17 106 1.6 3.2 0.00 0.03 0.00 85 1012.7
20260831002619 17 106 1.6 3.2 0.00 0.03 0.00 84 1012.7
20260831002519 17 106 1.6 3.2 0.00 0.03 0.00 84 1012.8
20260831002515 17 106 1.6 3.2 0.00 0.03 0.00 84 1012.8
20260831002511 17 106 1.6 3.2 0.00 0.03 0.00 84 1012.8
20260831002217 17 106 1.6 3.2 0.00 0.03 0.00 84 1012.9
20260831002117 17 106 1.6 3.2 0.00 0.03 0.00 84 1012.8
20260831002017 17 106 1.6 3.2 0.00 0.03 0.00 84 1012.8
20260831001917 17 106 1.6 3.2 0.00 0.03 0.00 84 1012.8
20260831001801 17 106 1.6 3.2 0.00 0.03 0.00 84 1012.9
20260831001718 17 106 1.6 3.2 0.00 0.03 0.00 84 1012.9
20260831001617 17 106 1.6 3.2 0.00 0.03 0.00 84 1012.9
20260831001514 17 106 1.6 3.2 0.00 0.03 0.00 84 1012.9
20260831001414 17 106 1.6 3.2 0.00 0.03 0.00 84 1012.9
20260831001314 17 105 1.6 3.2 0.00 0.03 0.00 84 1012.9
20260831001300 17 106 1.6 3.2 0.00 0.03 0.00 84 1012.9
20260831001213 17 106 1.6 3.2 0.00 0.03 0.00 84 1012.9
20260831001114 17 106 1.6 3.2 0.00 0.03 0.00 84 1012.9
20260831001013 17 105 1.6 3.2 0.00 0.03 0.00 84 1012.9
20260831000913 17 106 1.6 3.2 0.00 0.03 0.00 84 1012.9
20260831000801 17 105 0.0 3.2 0.00 0.03 0.00 84 1013.0
20260831000713 17 105 0.0 3.2 0.00 0.03 0.00 84 1013.0
20260831000613 17 105 0.0 3.2 0.00 0.03 0.00 84 1013.0
20260831000521 17 105 0.0 3.2 0.00 0.03 0.00 84 1013.0
20260831000517 17 105 0.0 3.2 0.00 0.03 0.00 84 1013.0
20260831000513 17 105 0.0 3.2 0.00 0.03 0.00 84 1013.0
20260831000211 17 105 1.6 3.2 0.00 0.03 0.00 84 1013.0
20260831000112 17 105 1.6 3.2 0.00 0.03 0.00 84 1013.0
20260831000011 17 105 1.6 3.2 0.00 0.03 0.00 84 1013.0
20260830235911 17 105 1.6 3.2 0.00 0.03 0.00 84 1013.0
20260830235801 17 105 1.6 3.2 0.00 0.03 0.00 83 1013.0
20260830235711 17 105 1.6 3.2 0.00 0.03 0.00 83 1013.0
20260830235611 17 105 1.6 3.2 0.00 0.03 0.00 83 1013.1
20260830235511 17 105 1.6 3.2 0.00 0.03 0.00 83 1013.0
20260830235411 17 105 1.6 3.2 0.00 0.03 0.00 83 1013.0
20260830235301 17 105 1.6 3.2 0.00 0.03 0.00 83 1013.0
20260830235211 17 105 1.6 3.2 0.00 0.03 0.00 83 1013.0
20260830235111 17 105 1.6 3.2 0.00 0.03 0.00 83 1013.0
20260830235011 17 105 1.6 3.2 0.00 0.03 0.00 83 1013.0
20260830234911 17 105 1.6 3.2 0.00 0.03 0.00 83 1013.0
20260830234801 17 105 1.6 3.2 0.00 0.03 0.00 83 1013.0
20260830234712 17 105 1.6 3.2 0.00 0.03 0.00 83 1013.0
20260830234612 17 105 1.6 3.2 0.00 0.03 0.00 83 1013.0
20260830234511 17 105 1.6 3.2 0.00 0.03 0.00 83 1013.0
20260830234407 17 105 1.6 3.2 0.00 0.03 0.00 83 1013.0
20260830234301 17 105 1.6 3.2 0.00 0.03 0.00 83 1013.0
20260830234208 17 105 1.6 3.2 0.00 0.03 0.00 83 1013.0
20260830234107 17 105 1.6 3.2 0.00 0.03 0.00 83 1013.0
20260830234020 17 105 1.6 3.2 0.00 0.03 0.00 83 1013.0
20260830234016 17 105 1.6 3.2 0.00 0.03 0.00 83 1013.0
20260830234012 17 105 1.6 3.2 0.00 0.03 0.00 83 1013.0
20260830233708 17 105 1.6 3.2 0.00 0.03 0.00 83 1013.0
20260830233608 17 105 1.6 3.2 0.00 0.03 0.00 83 1013.0
20260830233521 17 105 1.6 3.2 0.00 0.03 0.00 83 1013.0
20260830233517 17 105 1.6 3.2 0.00 0.03 0.00 83 1013.1
20260830233513 17 105 1.6 3.2 0.00 0.03 0.00 83 1013.1
20260830233207 17 105 1.6 3.2 0.00 0.03 0.00 83 1013.1
20260830233108 17 105 1.6 3.2 0.00 0.03 0.00 83 1013.1
20260830233008 17 105 1.6 3.2 0.00 0.03 0.00 83 1013.1
20260830232908 17 106 1.6 3.2 0.00 0.03 0.00 83 1013.1
20260830232807 17 106 1.6 3.2 0.00 0.03 0.00 83 1013.1
20260830232759 17 106 1.6 3.2 0.00 0.03 0.00 83 1013.1
20260830232707 17 106 1.6 6.4 0.00 0.03 0.00 83 1013.1
20260830232607 17 106 0.0 6.4 0.00 0.03 0.00 83 1013.1
20260830232503 17 106 0.0 6.4 0.00 0.03 0.00 83 1013.1
20260830232403 17 106 0.0 6.4 0.00 0.03 0.00 83 1013.1
20260830232306 17 106 1.6 6.4 0.00 0.03 0.00 83 1013.1
20260830232301 17 106 1.6 6.4 0.00 0.03 0.00 83 1013.1
20260830232204 17 106 1.6 6.4 0.00 0.03 0.00 83 1013.1
20260830232103 17 106 1.6 6.4 0.00 0.03 0.00 83 1013.1
20260830232004 17 106 1.6 6.4 0.00 0.03 0.00 83 1013.2
20260830231904 17 107 1.6 6.4 0.00 0.03 0.00 83 1013.2
20260830231804 17 107 1.6 6.4 0.00 0.03 0.00 83 1013.2
20260830231759 17 107 1.6 6.4 0.00 0.03 0.00 83 1013.2
20260830231704 17 123 1.6 4.8 0.00 0.03 0.00 83 1013.2
20260830231604 17 124 1.6 4.8 0.00 0.03 0.00 83 1013.2
20260830231504 17 123 1.6 4.8 0.00 0.03 0.00 83 1013.2
20260830231404 17 124 1.6 4.8 0.00 0.03 0.00 83 1013.2
20260830231303 17 124 1.6 4.8 0.00 0.03 0.00 83 1013.2
20260830231259 17 124 1.6 4.8 0.00 0.03 0.00 83 1013.2
20260830231203 17 125 1.6 4.8 0.00 0.03 0.00 84 1013.2
20260830231103 17 125 1.6 4.8 0.00 0.03 0.00 84 1013.2
20260830231003 17 125 1.6 4.8 0.00 0.03 0.00 83 1013.2
20260830230903 17 125 1.6 4.8 0.00 0.03 0.00 84 1013.2
20260830230804 17 125 1.6 4.8 0.00 0.03 0.00 84 1013.2
20260830230800 17 125 1.6 4.8 0.00 0.03 0.00 84 1013.2
20260830230704 17 126 1.6 4.8 0.00 0.03 0.00 84 1013.2
20260830230603 17 127 1.6 4.8 0.00 0.03 0.00 83 1013.2
20260830230501 17 127 1.6 4.8 0.00 0.03 0.00 84 1013.2
20260830230401 17 127 1.6 4.8 0.00 0.03 0.00 84 1013.3
20260830230304 17 127 1.6 3.2 0.00 0.03 0.00 84 1013.3
20260830230300 17 127 1.6 3.2 0.00 0.03 0.00 84 1013.3
20260830230202 17 128 1.6 3.2 0.00 0.03 0.00 84 1013.3
20260830230002 17 128 1.6 3.2 0.00 0.03 0.00 84 1013.3
20260830225902 17 128 1.6 3.2 0.00 0.03 0.00 84 1013.3
20260830225803 17 128 1.6 3.2 0.00 0.03 0.00 84 1013.4
20260830225759 17 128 1.6 3.2 0.00 0.03 0.00 84 1013.4
20260830225702 17 128 0.0 3.2 0.00 0.03 0.00 84 1013.4
20260830225601 17 128 0.0 3.2 0.00 0.03 0.00 84 1013.4
20260830225501 17 128 0.0 3.2 0.00 0.03 0.00 84 1013.4
20260830225401 17 128 0.0 3.2 0.00 0.03 0.00 84 1013.4
20260830225305 17 128 0.0 3.2 0.00 0.03 0.00 84 1013.4
20260830225300 17 128 0.0 3.2 0.00 0.03 0.00 84 1013.4
20260830225201 17 128 0.0 4.8 0.00 0.03 0.00 84 1013.3
20260830225101 17 128 0.0 4.8 0.00 0.03 0.00 84 1013.4
20260830225001 17 128 1.6 4.8 0.00 0.03 0.00 84 1013.4
20260830224901 17 128 1.6 4.8 0.00 0.03 0.00 84 1013.4
20260830224804 17 128 1.6 4.8 0.00 0.03 0.00 84 1013.4
20260830224759 17 128 1.6 4.8 0.00 0.03 0.00 84 1013.4
20260830224700 17 128 1.6 4.8 0.00 0.03 0.00 83 1013.4
20260830224601 17 128 1.6 4.8 0.00 0.03 0.00 83 1013.4
20260830224501 17 128 1.6 4.8 0.00 0.03 0.00 83 1013.4
20260830224401 17 128 1.6 4.8 0.00 0.03 0.00 83 1013.4
20260830224301 17 129 1.6 4.8 0.00 0.03 0.00 83 1013.4
20260830224252 17 129 1.6 4.8 0.00 0.03 0.00 83 1013.4
20260830224200 17 129 1.6 4.8 0.00 0.03 0.00 83 1013.4
20260830224100 17 131 1.6 4.8 0.00 0.03 0.00 83 1013.4
20260830224014 17 132 1.6 4.8 0.00 0.03 0.00 83 1013.3
20260830224005 17 131 1.6 4.8 0.00 0.03 0.00 83 1013.4
20260830224001 17 131 1.6 4.8 0.00 0.03 0.00 83 1013.3
20260830223957 17 132 1.6 4.8 0.00 0.03 0.00 83 1013.3
20260830223700 17 132 1.6 4.8 0.00 0.03 0.00 83 1013.3
20260830223604 17 132 1.6 4.8 0.00 0.03 0.00 83 1013.3
20260830223501 18 132 1.6 4.8 0.00 0.03 0.00 83 1013.4
20260830223401 18 134 1.6 4.8 0.00 0.03 0.00 83 1013.4
20260830223301 18 136 1.6 4.8 0.00 0.03 0.00 82 1013.4
20260830223240 18 136 1.6 4.8 0.00 0.03 0.00 82 1013.4
20260830223202 18 136 1.6 4.8 0.00 0.03 0.00 82 1013.4
20260830223102 18 136 0.0 4.8 0.00 0.03 0.00 82 1013.4
20260830223005 18 136 0.0 3.2 0.00 0.03 0.00 83 1013.5
20260830223001 18 137 0.0 3.2 0.00 0.03 0.00 82 1013.4
20260830222957 18 136 0.0 3.2 0.00 0.03 0.00 82 1013.4
20260830222953 18 136 0.0 3.2 0.00 0.03 0.00 83 1013.5
20260830222701 18 136 0.0 3.2 0.00 0.03 0.00 83 1013.5
20260830222601 18 136 0.0 3.2 0.00 0.03 0.00 82 1013.5
20260830222501 18 136 0.0 3.2 0.00 0.03 0.00 82 1013.5
20260830222401 18 136 0.0 3.2 0.00 0.03 0.00 82 1013.5
20260830222301 18 136 0.0 3.2 0.00 0.03 0.00 82 1013.5
20260830222228 18 136 1.6 4.8 0.00 0.03 0.00 82 1013.6
20260830222224 18 136 0.0 3.2 0.00 0.03 0.00 82 1013.5
20260830222220 18 136 0.0 3.2 0.00 0.03 0.00 82 1013.5
20260830222212 18 136 0.0 3.2 0.00 0.03 0.00 82 1013.5
20260830221953 18 136 0.0 3.2 0.00 0.03 0.00 82 1013.5
20260830221949 18 136 1.6 4.8 0.00 0.03 0.00 82 1013.6
20260830221702 18 136 1.6 4.8 0.00 0.03 0.00 82 1013.6
20260830221600 18 136 1.6 4.8 0.00 0.03 0.00 82 1013.6
20260830221500 18 136 1.6 4.8 0.00 0.03 0.00 82 1013.6
20260830221359 18 136 1.6 4.8 0.00 0.03 0.00 82 1013.6
20260830221239 18 136 1.6 4.8 0.00 0.03 0.00 82 1013.6
20260830221227 18 137 1.6 3.2 0.00 0.03 0.00 82 1013.7
20260830221223 18 136 1.6 4.8 0.00 0.03 0.00 82 1013.6
20260830221218 18 136 1.6 4.8 0.00 0.03 0.00 82 1013.6
20260830220957 18 136 1.6 4.8 0.00 0.03 0.00 82 1013.6
20260830220953 18 136 1.6 4.8 0.00 0.03 0.00 82 1013.7
20260830220949 18 137 1.6 3.2 0.00 0.03 0.00 82 1013.7
20260830220656 18 138 1.6 3.2 0.00 0.03 0.00 82 1013.7
20260830220556 18 138 1.6 3.2 0.00 0.03 0.00 82 1013.7
20260830220458 18 138 1.6 3.2 0.00 0.03 0.00 82 1013.7
20260830220454 18 138 1.6 3.2 0.00 0.03 0.00 82 1013.7
20260830220450 18 138 1.6 3.2 0.00 0.03 0.00 82 1013.7
20260830220155 18 138 0.0 3.2 0.00 0.03 0.00 82 1013.7
20260830220052 18 138 0.0 3.2 0.00 0.03 0.00 83 1013.7
20260830215952 18 138 0.0 3.2 0.00 0.03 0.03 82 1013.8
20260830215852 18 138 0.0 3.2 0.00 0.03 0.03 82 1013.7
20260830215737 18 138 0.0 3.2 0.00 0.03 0.03 82 1013.7
20260830215648 18 138 0.0 3.2 0.00 0.03 0.03 82 1013.8
20260830215548 18 138 0.0 3.2 0.00 0.03 0.03 82 1013.8
20260830215448 18 138 0.0 3.2 0.00 0.03 0.03 82 1013.9
20260830215348 18 138 0.0 3.2 0.00 0.03 0.03 82 1013.9
20260830215237 18 138 0.0 3.2 0.00 0.03 0.03 82 1013.9
20260830215147 18 138 1.6 4.8 0.00 0.03 0.03 82 1013.8
20260830215047 18 138 1.6 4.8 0.00 0.03 0.03 82 1013.9
20260830214955 18 138 1.6 4.8 0.00 0.03 0.03 82 1013.9
20260830214951 18 138 1.6 4.8 0.00 0.03 0.03 82 1013.9
20260830214947 18 138 1.6 4.8 0.00 0.03 0.03 82 1013.8
20260830214640 18 138 1.6 4.8 0.00 0.03 0.03 82 1013.8
20260830214541 18 138 1.6 4.8 0.00 0.03 0.03 82 1013.8
20260830214459 18 138 1.6 4.8 0.00 0.03 0.03 82 1013.8
20260830214454 18 138 1.6 4.8 0.00 0.03 0.03 82 1013.9
20260830214450 18 138 1.6 4.8 0.00 0.03 0.03 82 1013.9
20260830214134 18 138 1.6 4.8 0.00 0.03 0.03 82 1013.9
20260830214038 18 140 1.6 3.2 0.00 0.03 0.03 83 1013.9
20260830213932 18 140 1.6 3.2 0.00 0.03 0.03 82 1013.9
20260830213830 18 140 1.6 3.2 0.00 0.03 0.03 82 1013.9
20260830213730 18 140 1.6 3.2 0.00 0.03 0.03 82 1013.9
20260830213630 18 140 1.6 3.2 0.00 0.03 0.03 82 1013.9
20260830213529 18 140 1.6 3.2 0.00 0.03 0.03 82 1013.9
20260830213430 18 140 1.6 3.2 0.00 0.03 0.03 82 1013.9
20260830213330 18 140 1.6 3.2 0.00 0.03 0.03 82 1013.9
20260830213229 18 140 1.6 3.2 0.00 0.03 0.03 82 1013.9
20260830213129 18 140 1.6 3.2 0.00 0.03 0.03 82 1013.8
20260830213033 18 140 1.6 3.2 0.00 0.03 0.03 82 1013.8
20260830213003 18 140 0.0 3.2 0.00 0.03 0.03 82 1013.9
20260830212949 18 140 1.6 3.2 0.00 0.03 0.03 82 1013.9
20260830212944 18 140 1.6 3.2 0.00 0.03 0.03 82 1013.9
20260830212729 18 140 0.0 3.2 0.00 0.03 0.03 81 1013.9
20260830212628 18 140 0.0 3.2 0.00 0.03 0.03 81 1013.9
20260830212532 18 140 0.0 3.2 0.00 0.03 0.03 81 1013.8
20260830212429 18 140 0.0 3.2 0.00 0.03 0.03 81 1013.9
20260830212328 18 140 0.0 3.2 0.00 0.03 0.03 82 1013.9
20260830212229 18 140 0.0 1.6 0.00 0.03 0.03 82 1013.9
20260830212129 18 140 0.0 3.2 0.00 0.03 0.03 81 1013.9
20260830212037 18 140 0.0 3.2 0.00 0.03 0.03 81 1013.9
20260830211952 18 140 0.0 3.2 0.00 0.03 0.03 81 1013.9
20260830211948 18 140 0.0 3.2 0.00 0.03 0.03 81 1013.9
20260830211944 18 140 0.0 3.2 0.00 0.03 0.03 81 1013.9
20260830211728 18 140 0.0 3.2 0.00 0.03 0.03 81 1013.9
20260830211628 18 140 0.0 3.2 0.00 0.03 0.03 81 1013.9
20260830211528 18 140 1.6 3.2 0.00 0.03 0.03 81 1013.9
20260830211429 18 140 1.6 3.2 0.00 0.03 0.03 81 1013.9
20260830211324 18 140 1.6 3.2 0.00 0.03 0.03 81 1013.9
20260830211225 18 140 1.6 3.2 0.00 0.03 0.03 81 1013.9
20260830211124 18 140 1.6 3.2 0.00 0.03 0.03 81 1013.9
20260830211025 18 140 1.6 3.2 0.00 0.03 0.03 82 1013.9
20260830210924 18 140 1.6 3.2 0.00 0.03 0.03 81 1013.9
20260830210820 18 140 1.6 3.2 0.00 0.03 0.03 81 1013.9
20260830210720 18 140 1.6 3.2 0.00 0.03 0.03 81 1013.9
20260830210620 18 141 1.6 3.2 0.00 0.03 0.03 81 1013.9
20260830210524 18 141 1.6 3.2 0.00 0.03 0.03 81 1014.1
20260830210420 18 141 1.6 3.2 0.00 0.03 0.03 81 1013.9
20260830210320 18 141 1.6 4.8 0.00 0.03 0.03 81 1014.1
20260830210223 18 141 1.6 6.4 0.00 0.03 0.03 81 1014.1
20260830210219 18 141 1.6 6.4 0.00 0.03 0.03 81 1013.9
20260830210207 18 141 1.6 6.4 0.00 0.03 0.03 81 1014.1
20260830210203 18 141 1.6 6.4 0.00 0.03 0.03 81 1013.9
20260830205944 18 141 1.6 6.4 0.00 0.03 0.03 81 1013.9
20260830205940 18 141 1.6 6.4 0.00 0.03 0.03 81 1013.9
20260830205714 18 141 1.6 6.4 0.00 0.03 0.03 81 1013.9
20260830205614 18 141 1.6 6.4 0.00 0.03 0.03 81 1013.9
20260830205512 18 141 1.6 6.4 0.00 0.03 0.03 81 1013.9
20260830205411 18 141 1.6 6.4 0.00 0.03 0.03 81 1013.9
20260830205310 18 142 1.6 6.4 0.00 0.03 0.03 81 1013.9
20260830205209 18 142 1.6 4.8 0.00 0.03 0.03 81 1013.9
20260830205108 18 142 1.6 4.8 0.00 0.03 0.03 80 1013.9
20260830205006 18 142 1.6 4.8 0.00 0.03 0.03 80 1014.1
20260830204906 18 142 0.0 4.8 0.00 0.03 0.03 81 1014.1
20260830204807 18 142 0.0 3.2 0.00 0.03 0.03 81 1014.1
20260830204706 18 142 0.0 3.2 0.00 0.03 0.03 81 1014.1
20260830204606 18 142 0.0 3.2 0.00 0.03 0.03 81 1014.1
20260830204505 18 142 0.0 3.2 0.00 0.03 0.03 81 1014.1
20260830204404 18 142 0.0 3.2 0.00 0.03 0.03 81 1014.1
20260830204304 18 142 0.0 3.2 0.00 0.03 0.03 81 1014.1
20260830204204 18 142 0.0 3.2 0.00 0.03 0.03 80 1014.1
20260830204104 18 142 0.0 3.2 0.00 0.03 0.03 80 1013.9
20260830204003 18 142 0.0 3.2 0.00 0.03 0.03 80 1014.1
20260830203902 18 142 0.0 3.2 0.00 0.03 0.03 80 1014.1
20260830203801 18 142 0.0 3.2 0.00 0.03 0.03 80 1014.1
20260830203702 18 142 0.0 3.2 0.00 0.03 0.03 80 1014.1
20260830203602 18 142 0.0 3.2 0.00 0.03 0.03 80 1014.1
20260830203501 18 142 0.0 3.2 0.00 0.03 0.03 80 1014.1
20260830203401 18 142 0.0 3.2 0.00 0.03 0.03 80 1014.1
20260830203302 18 142 0.0 3.2 0.00 0.03 0.03 79 1014.1
20260830203201 18 142 0.0 3.2 0.00 0.03 0.03 79 1014.1
20260830203101 18 142 0.0 3.2 0.00 0.03 0.03 79 1014.1
20260830203002 18 142 0.0 3.2 0.00 0.03 0.03 79 1014.1
20260830202901 18 142 0.0 1.6 0.00 0.03 0.03 79 1014.1
20260830202801 18 142 0.0 4.8 0.00 0.03 0.03 79 1014.2
20260830202729 18 142 0.0 4.8 0.00 0.03 0.03 79 1014.2
20260830202701 18 142 1.6 4.8 0.00 0.03 0.03 79 1014.2
20260830202601 18 142 1.6 8.0 0.00 0.03 0.03 79 1014.1
20260830202501 18 142 1.6 8.0 0.00 0.03 0.03 79 1014.1
20260830202404 18 142 1.6 8.0 0.00 0.03 0.03 79 1014.1
20260830202301 18 142 1.6 8.0 0.00 0.03 0.03 79 1014.1
20260830202201 18 142 1.6 8.0 0.00 0.03 0.03 78 1014.1
20260830202101 18 142 1.6 8.0 0.00 0.03 0.03 78 1014.1
20260830202006 18 142 1.6 8.0 0.00 0.03 0.03 79 1013.9
20260830201901 18 142 1.6 8.0 0.00 0.03 0.03 79 1013.9
20260830201801 18 142 1.6 8.0 0.00 0.03 0.03 79 1013.9
20260830201728 18 142 1.6 8.0 0.00 0.03 0.03 79 1013.9
20260830201701 18 144 1.6 8.0 0.00 0.03 0.03 79 1013.9
20260830201600 18 198 1.6 3.2 0.00 0.03 0.03 79 1014.1
20260830201504 18 201 1.6 3.2 0.00 0.03 0.03 79 1014.1
20260830201400 18 201 1.6 3.2 0.00 0.03 0.03 79 1014.1
20260830201229 18 263 1.6 3.2 0.00 0.03 0.03 79 1013.9
20260830201158 18 263 1.6 3.2 0.00 0.03 0.03 79 1013.9
20260830201056 18 263 1.6 3.2 0.00 0.03 0.03 78 1014.1
20260830200958 18 263 1.6 3.2 0.00 0.03 0.03 78 1013.9
20260830200852 18 263 0.0 3.2 0.00 0.03 0.03 78 1013.9
20260830200752 18 266 0.0 3.2 0.00 0.03 0.03 78 1013.9
20260830200730 18 267 0.0 3.2 0.00 0.03 0.03 78 1013.9
20260830200652 18 267 0.0 3.2 0.00 0.03 0.03 78 1013.9
20260830200552 18 267 0.0 3.2 0.00 0.03 0.03 78 1014.1
20260830200455 19 267 0.0 3.2 0.00 0.03 0.03 78 1014.1
20260830200443 19 267 0.0 1.6 0.00 0.03 0.03 77 1014.1
20260830200439 19 267 0.0 3.2 0.00 0.03 0.03 77 1014.1
20260830200431 19 267 0.0 1.6 0.00 0.03 0.03 78 1014.1
20260830200211 19 267 0.0 1.6 0.00 0.03 0.03 77 1014.1
20260830200207 19 267 0.0 1.6 0.00 0.03 0.03 77 1013.9
20260830195952 19 267 0.0 1.6 0.00 0.03 0.03 77 1014.1
20260830195944 19 267 0.0 1.6 0.00 0.03 0.03 77 1014.1
20260830195940 19 267 0.0 1.6 0.00 0.03 0.03 77 1014.1
20260830195644 19 267 0.0 1.6 0.00 0.03 0.03 76 1014.1
20260830195542 19 267 0.0 1.6 0.00 0.03 0.03 76 1014.1
20260830195442 19 267 0.0 1.6 0.00 0.03 0.03 76 1014.2
20260830195340 19 267 0.0 1.6 0.00 0.03 0.03 76 1014.1
20260830195228 19 267 0.0 1.6 0.00 0.03 0.03 76 1014.2
20260830195138 19 267 0.0 3.2 0.00 0.03 0.03 76 1014.2
20260830195035 19 267 1.6 4.8 0.00 0.03 0.03 76 1014.1
20260830194936 19 267 1.6 4.8 0.00 0.03 0.03 76 1014.2
20260830194836 19 267 1.6 4.8 0.00 0.03 0.03 76 1014.2
20260830194728 19 267 1.6 4.8 0.00 0.03 0.03 76 1014.2
20260830194635 19 267 1.6 4.8 0.00 0.03 0.03 76 1014.2
20260830194534 19 267 1.6 4.8 0.00 0.03 0.03 76 1014.2
20260830194434 19 267 1.6 4.8 0.00 0.03 0.03 76 1014.2
20260830194331 19 267 1.6 4.8 0.00 0.03 0.03 76 1014.3
20260830194228 19 267 1.6 4.8 0.00 0.03 0.03 75 1014.2
20260830194130 19 267 1.6 4.8 0.00 0.03 0.03 75 1014.3
20260830194029 19 267 1.6 4.8 0.00 0.03 0.03 75 1014.3
20260830193929 19 279 0.0 3.2 0.00 0.03 0.03 75 1014.2
20260830193829 19 279 1.6 3.2 0.00 0.03 0.03 75 1014.2
20260830193729 20 279 1.6 3.2 0.00 0.03 0.03 75 1014.2
20260830193629 20 279 0.0 3.2 0.00 0.03 0.03 75 1014.2
20260830193529 20 279 0.0 3.2 0.00 0.03 0.03 75 1014.2
20260830193449 20 279 0.0 1.6 0.00 0.03 0.03 75 1014.2
20260830193445 20 279 0.0 1.6 0.00 0.03 0.03 75 1014.2
20260830193441 20 279 0.0 1.6 0.00 0.03 0.03 75 1014.2
20260830193124 20 279 0.0 3.2 0.00 0.03 0.03 74 1014.2
20260830193024 20 279 0.0 3.2 0.00 0.03 0.03 74 1014.1
20260830192923 20 279 0.0 3.2 0.00 0.03 0.03 74 1014.1
20260830192824 20 279 0.0 3.2 0.00 0.03 0.03 74 1014.1
20260830192723 20 279 1.6 3.2 0.00 0.03 0.03 74 1014.2
20260830192619 20 279 1.6 6.4 0.00 0.03 0.03 74 1014.2
20260830192518 20 279 1.6 6.4 0.00 0.03 0.03 74 1014.2
20260830192418 20 279 1.6 6.4 0.00 0.03 0.03 74 1014.3
20260830192318 20 279 1.6 6.4 0.00 0.03 0.03 73 1014.3
20260830192218 20 279 1.6 6.4 0.00 0.03 0.03 73 1014.3
20260830192113 20 279 1.6 6.4 0.00 0.03 0.03 73 1014.2
20260830192014 20 279 1.6 6.4 0.00 0.03 0.03 73 1014.2
20260830191914 20 279 1.6 6.4 0.00 0.03 0.03 72 1014.2
20260830191814 20 279 1.6 6.4 0.00 0.03 0.03 72 1014.2
20260830191711 20 279 1.6 6.4 0.00 0.03 0.03 72 1014.2
20260830191608 20 273 0.0 6.4 0.00 0.03 0.03 72 1014.2
20260830191506 20 273 0.0 6.4 0.00 0.03 0.03 73 1014.2
20260830191406 20 261 0.0 3.2 0.00 0.03 0.03 73 1014.1
20260830191306 20 261 0.0 0.0 0.00 0.03 0.03 72 1014.1
20260830191205 20 261 0.0 0.0 0.00 0.03 0.03 72 1014.1
20260830191101 20 261 0.0 0.0 0.00 0.03 0.03 72 1014.1
20260830191001 20 261 0.0 0.0 0.00 0.03 0.03 72 1014.1
20260830190934 20 261 0.0 1.6 0.00 0.03 0.03 71 1014.1
20260830190925 20 261 0.0 0.0 0.00 0.03 0.03 71 1013.9
20260830190921 20 261 0.0 0.0 0.00 0.03 0.03 71 1014.1
20260830190702 20 261 0.0 1.6 0.00 0.03 0.03 71 1014.1
20260830190602 20 261 0.0 1.6 0.00 0.03 0.03 71 1014.1
20260830190501 20 261 0.0 1.6 0.00 0.03 0.03 71 1014.1
20260830190401 20 261 0.0 1.6 0.00 0.03 0.03 71 1014.1
20260830190301 20 261 0.0 1.6 0.00 0.03 0.03 71 1014.1
20260830190201 21 261 0.0 1.6 0.00 0.03 0.03 71 1014.1
20260830190001 21 261 0.0 1.6 0.00 0.03 0.03 70 1014.1
20260830185901 21 261 0.0 1.6 0.00 0.03 0.03 70 1014.1
20260830185801 21 261 0.0 1.6 0.00 0.03 0.03 69 1014.1
20260830185700 21 261 0.0 1.6 0.00 0.03 0.03 70 1014.1
20260830185601 21 261 0.0 1.6 0.00 0.03 0.03 70 1014.1
20260830185501 21 261 0.0 1.6 0.00 0.03 0.03 69 1014.1
20260830185401 21 261 0.0 1.6 0.00 0.03 0.03 69 1014.1
20260830185301 21 261 0.0 1.6 0.00 0.03 0.03 69 1014.1
20260830185201 21 261 0.0 1.6 0.00 0.03 0.03 69 1014.1
20260830185101 21 261 0.0 1.6 0.00 0.03 0.03 69 1014.1
20260830185002 21 261 0.0 1.6 0.00 0.03 0.03 69 1014.1
20260830184901 21 261 0.0 1.6 0.00 0.03 0.03 69 1014.1
20260830184801 21 261 0.0 1.6 0.00 0.03 0.03 69 1014.1
20260830184700 21 261 0.0 1.6 0.00 0.03 0.03 69 1014.1
20260830184600 21 261 0.0 1.6 0.00 0.03 0.03 68 1014.1
20260830184500 21 261 0.0 1.6 0.00 0.03 0.03 68 1014.1
20260830184401 21 261 0.0 1.6 0.00 0.03 0.03 68 1014.1
20260830184300 21 261 0.0 0.0 0.00 0.03 0.03 68 1014.1
20260830184200 21 261 0.0 0.0 0.00 0.03 0.03 68 1014.1
20260830184101 21 261 0.0 0.0 0.00 0.03 0.03 68 1014.1
20260830184001 22 261 0.0 1.6 0.00 0.03 0.03 67 1014.1
20260830183902 22 261 0.0 1.6 0.00 0.03 0.03 67 1013.9
20260830183802 22 261 0.0 1.6 0.00 0.03 0.03 67 1013.9
20260830183701 22 261 0.0 1.6 0.00 0.03 0.03 67 1013.9
20260830183601 22 261 0.0 1.6 0.00 0.03 0.03 67 1013.9
20260830183501 22 261 0.0 1.6 0.00 0.03 0.03 67 1013.8
20260830183429 22 261 0.0 1.6 0.00 0.03 0.03 66 1013.8
20260830183420 22 261 0.0 1.6 0.00 0.03 0.03 67 1013.9
20260830183416 22 261 0.0 1.6 0.00 0.03 0.03 66 1013.9
20260830183156 22 261 0.0 1.6 0.00 0.03 0.03 66 1013.8
20260830183054 22 261 0.0 1.6 0.00 0.03 0.03 66 1013.8
20260830182954 22 261 0.0 1.6 0.00 0.03 0.03 65 1013.8
20260830182853 22 261 0.0 1.6 0.00 0.03 0.03 65 1013.8
20260830182753 22 261 0.0 1.6 0.00 0.03 0.03 64 1013.8
20260830182702 22 261 0.0 1.6 0.00 0.03 0.03 63 1013.8
20260830182654 22 261 0.0 1.6 0.00 0.03 0.03 63 1013.8
20260830182553 22 261 0.0 1.6 0.00 0.03 0.03 63 1013.7
20260830182452 22 261 0.0 1.6 0.00 0.03 0.03 63 1013.7
20260830182350 22 261 0.0 1.6 0.00 0.03 0.03 63 1013.7
20260830182248 22 261 0.0 1.6 0.00 0.03 0.03 63 1013.7
20260830182202 22 261 0.0 1.6 0.00 0.03 0.03 63 1013.7
20260830182158 23 261 1.6 3.2 0.00 0.03 0.03 62 1013.7
20260830182152 22 261 0.0 1.6 0.00 0.03 0.03 63 1013.7
20260830182148 22 261 0.0 3.2 0.00 0.03 0.03 62 1013.7
20260830182144 22 261 0.0 3.2 0.00 0.03 0.03 62 1013.7
20260830181917 22 261 0.0 3.2 0.00 0.03 0.03 62 1013.7
20260830181913 23 261 1.6 3.2 0.00 0.03 0.03 62 1013.7
20260830181643 23 261 1.6 3.2 0.00 0.03 0.03 62 1013.7
20260830181543 23 261 1.6 3.2 0.00 0.03 0.03 62 1013.7
20260830181443 23 261 1.6 3.2 0.00 0.03 0.03 62 1013.7
20260830181342 23 261 1.6 3.2 0.00 0.03 0.03 62 1013.7
20260830181242 23 261 1.6 3.2 0.00 0.03 0.03 61 1013.7
20260830181202 23 261 1.6 3.2 0.00 0.03 0.03 61 1013.7
20260830181139 23 261 1.6 3.2 0.00 0.03 0.03 61 1013.7
20260830181038 23 261 1.6 3.2 0.00 0.03 0.03 61 1013.7
20260830180938 23 261 1.6 3.2 0.00 0.03 0.03 61 1013.7
20260830180837 23 261 1.6 3.2 0.00 0.03 0.03 61 1013.7
20260830180738 23 261 1.6 3.2 0.00 0.03 0.03 61 1013.6
20260830180701 23 261 1.6 3.2 0.00 0.03 0.03 61 1013.7
20260830180638 23 261 1.6 3.2 0.00 0.03 0.03 61 1013.7
20260830180536 23 261 1.6 3.2 0.00 0.03 0.03 61 1013.7
20260830180436 23 261 1.6 3.2 0.00 0.03 0.03 61 1013.7
20260830180333 23 261 1.6 3.2 0.00 0.03 0.03 60 1013.7
20260830180233 23 261 1.6 3.2 0.00 0.03 0.03 60 1013.7
20260830180200 23 261 1.6 3.2 0.00 0.03 0.03 60 1013.7
20260830180134 23 261 1.6 3.2 0.00 0.03 0.03 60 1013.7
20260830180034 23 261 1.6 4.8 0.00 0.03 0.03 60 1013.7
20260830175934 23 261 1.6 4.8 0.00 0.03 0.03 60 1013.7
20260830175833 23 261 1.6 4.8 0.00 0.03 0.03 60 1013.7
20260830175733 23 261 1.6 4.8 0.00 0.03 0.03 60 1013.7
20260830175700 23 261 1.6 4.8 0.00 0.03 0.03 59 1013.7
20260830175634 23 261 1.6 4.8 0.00 0.03 0.03 59 1013.7
20260830175534 23 261 1.6 4.8 0.00 0.03 0.03 60 1013.7
20260830175434 23 261 1.6 4.8 0.00 0.03 0.03 60 1013.7
20260830175332 23 261 1.6 4.8 0.00 0.03 0.03 59 1013.6
20260830175232 23 261 1.6 4.8 0.00 0.03 0.03 59 1013.7
20260830175200 23 261 3.2 4.8 0.00 0.03 0.03 60 1013.7
20260830175132 23 261 3.2 4.8 0.00 0.03 0.03 60 1013.7
20260830175032 23 261 3.2 4.8 0.00 0.03 0.03 59 1013.7
20260830174932 23 261 3.2 4.8 0.00 0.03 0.03 59 1013.7
20260830174830 23 261 3.2 6.4 0.00 0.03 0.03 59 1013.6
20260830174701 23 261 3.2 6.4 0.00 0.03 0.03 59 1013.6
20260830174629 23 261 3.2 6.4 0.00 0.03 0.03 59 1013.6
20260830174530 23 261 3.2 6.4 0.00 0.03 0.03 59 1013.6
20260830174431 23 262 3.2 6.4 0.00 0.03 0.03 59 1013.6
20260830174427 23 262 3.2 6.4 0.00 0.03 0.03 59 1013.5
20260830174417 23 261 3.2 6.4 0.00 0.03 0.03 59 1013.6
20260830174413 23 262 3.2 6.4 0.00 0.03 0.03 59 1013.6
20260830174130 23 262 3.2 6.4 0.00 0.03 0.03 58 1013.5
20260830174029 23 262 3.2 6.4 0.00 0.03 0.03 58 1013.6
20260830173931 23 262 3.2 6.4 0.00 0.03 0.03 59 1013.6
20260830173916 23 263 3.2 6.4 0.00 0.03 0.03 58 1013.6
20260830173912 23 263 3.2 6.4 0.00 0.03 0.03 58 1013.6
20260830173626 24 263 3.2 6.4 0.00 0.03 0.03 58 1013.6
20260830173526 24 263 3.2 9.7 0.00 0.03 0.03 58 1013.6
20260830173425 24 263 3.2 11.3 0.00 0.03 0.03 57 1013.6
20260830173326 24 263 4.8 11.3 0.00 0.03 0.03 57 1013.6
20260830173226 24 263 4.8 11.3 0.00 0.03 0.03 57 1013.6
20260830173201 24 264 4.8 11.3 0.00 0.03 0.03 57 1013.5
20260830173125 24 264 4.8 11.3 0.00 0.03 0.03 57 1013.5
20260830173023 24 264 4.8 11.3 0.00 0.03 0.03 57 1013.5
20260830172924 24 264 6.4 11.3 0.00 0.03 0.03 56 1013.5
20260830172823 24 265 6.4 11.3 0.00 0.03 0.03 56 1013.5
20260830172701 24 265 6.4 12.9 0.00 0.03 0.03 57 1013.5
20260830172621 24 256 6.4 12.9 0.00 0.03 0.03 57 1013.5
20260830172522 24 293 6.4 12.9 0.00 0.03 0.03 56 1013.5
20260830172422 24 246 6.4 12.9 0.00 0.03 0.03 56 1013.5
20260830172322 24 269 4.8 12.9 0.00 0.03 0.03 57 1013.5
20260830172222 24 279 4.8 12.9 0.00 0.03 0.03 57 1013.5
20260830172200 24 275 4.8 12.9 0.00 0.03 0.03 57 1013.5
20260830172120 24 261 4.8 12.9 0.00 0.03 0.03 56 1013.5
20260830172019 24 262 4.8 12.9 0.00 0.03 0.03 56 1013.6
20260830171921 24 253 4.8 12.9 0.00 0.03 0.03 56 1013.6
20260830171819 24 261 4.8 12.9 0.00 0.03 0.03 57 1013.6
20260830171719 24 238 4.8 9.7 0.00 0.03 0.03 57 1013.5
20260830171701 24 265 4.8 9.7 0.00 0.03 0.03 57 1013.5
20260830171619 24 267 4.8 9.7 0.00 0.03 0.03 56 1013.5
20260830171513 24 275 3.2 9.7 0.00 0.03 0.03 56 1013.6
20260830171413 24 218 4.8 8.0 0.00 0.03 0.03 56 1013.6
20260830171313 24 243 4.8 11.3 0.00 0.03 0.03 56 1013.6
20260830171213 24 243 4.8 11.3 0.00 0.03 0.03 57 1013.5
20260830171201 25 243 4.8 11.3 0.00 0.03 0.03 56 1013.5
20260830171113 25 243 4.8 11.3 0.00 0.03 0.03 56 1013.5
20260830171014 25 244 4.8 11.3 0.00 0.03 0.03 55 1013.5
20260830170914 25 246 4.8 11.3 0.00 0.03 0.03 56 1013.5
20260830170812 25 245 4.8 12.9 0.00 0.03 0.03 56 1013.5
20260830170712 25 230 4.8 12.9 0.00 0.03 0.03 56 1013.5
20260830170701 25 231 4.8 12.9 0.00 0.03 0.03 56 1013.5
20260830170612 25 252 4.8 12.9 0.00 0.03 0.03 56 1013.5
20260830170512 25 254 6.4 12.9 0.00 0.03 0.03 56 1013.5
20260830170412 25 257 6.4 12.9 0.00 0.03 0.03 56 1013.5
20260830170312 25 280 6.4 16.1 0.00 0.03 0.03 55 1013.5
20260830170210 25 244 6.4 16.1 0.00 0.03 0.03 55 1013.5
20260830170201 25 216 6.4 16.1 0.00 0.03 0.03 55 1013.5
20260830170110 25 215 6.4 16.1 0.00 0.03 0.03 55 1013.5
20260830170009 25 215 6.4 16.1 0.00 0.03 0.03 54 1013.5
20260830165909 25 250 6.4 16.1 0.00 0.03 0.03 54 1013.5
20260830165810 25 267 6.4 16.1 0.00 0.03 0.03 55 1013.5
20260830165710 25 264 6.4 16.1 0.00 0.03 0.03 55 1013.5
20260830165701 25 266 6.4 16.1 0.00 0.03 0.03 55 1013.5
20260830165610 25 240 6.4 16.1 0.00 0.03 0.03 54 1013.5
20260830165510 25 266 6.4 16.1 0.00 0.03 0.03 54 1013.5
20260830165410 25 198 6.4 16.1 0.00 0.03 0.03 55 1013.5
20260830165310 25 225 6.4 11.3 0.00 0.03 0.03 55 1013.5
20260830165210 25 221 6.4 12.9 0.00 0.03 0.03 54 1013.4
20260830165201 25 205 6.4 12.9 0.00 0.03 0.03 54 1013.4
20260830165109 25 214 6.4 12.9 0.00 0.03 0.03 55 1013.4
20260830165009 25 213 6.4 16.1 0.00 0.03 0.03 55 1013.4
20260830164909 25 284 6.4 16.1 0.00 0.03 0.03 55 1013.4
20260830164809 25 242 8.0 16.1 0.00 0.03 0.03 55 1013.4
20260830164710 25 256 8.0 16.1 0.00 0.03 0.03 55 1013.4
20260830164700 25 258 8.0 16.1 0.00 0.03 0.03 55 1013.4
20260830164605 25 260 8.0 17.7 0.00 0.03 0.03 54 1013.4
20260830164506 25 250 8.0 17.7 0.00 0.03 0.03 55 1013.5
20260830164406 25 213 8.0 17.7 0.00 0.03 0.03 55 1013.5
20260830164305 25 265 8.0 17.7 0.00 0.03 0.03 55 1013.5
20260830164201 25 243 9.7 17.7 0.00 0.03 0.03 54 1013.4
20260830164106 25 202 8.0 17.7 0.00 0.03 0.03 56 1013.4
20260830164006 25 228 8.0 17.7 0.00 0.03 0.03 56 1013.5
20260830163906 25 223 8.0 17.7 0.00 0.03 0.03 54 1013.5
20260830163806 25 229 8.0 17.7 0.00 0.03 0.03 56 1013.5
20260830163701 25 234 8.0 17.7 0.00 0.03 0.03 56 1013.5
20260830163606 25 240 8.0 16.1 0.00 0.03 0.03 55 1013.5
20260830163505 25 254 8.0 16.1 0.00 0.03 0.03 55 1013.5
20260830163405 25 260 8.0 16.1 0.00 0.03 0.03 56 1013.5
20260830163306 25 246 8.0 16.1 0.00 0.03 0.03 55 1013.4
20260830163200 25 271 8.0 16.1 0.00 0.03 0.03 55 1013.5
20260830163105 25 288 8.0 16.1 0.00 0.03 0.03 54 1013.5
20260830163005 25 236 9.7 16.1 0.00 0.03 0.03 54 1013.5
20260830162905 25 263 9.7 17.7 0.00 0.03 0.03 54 1013.5
20260830162805 25 286 9.7 17.7 0.00 0.03 0.03 54 1013.5
20260830162701 25 254 9.7 17.7 0.00 0.03 0.03 54 1013.5
20260830162602 25 248 9.7 17.7 0.00 0.03 0.03 55 1013.5
20260830162502 25 259 9.7 17.7 0.00 0.03 0.03 55 1013.5
20260830162402 25 271 11.3 17.7 0.00 0.03 0.03 55 1013.5
20260830162305 25 260 11.3 17.7 0.00 0.03 0.03 55 1013.5
20260830162205 25 271 11.3 17.7 0.00 0.03 0.03 54 1013.5
20260830162201 25 286 11.3 17.7 0.00 0.03 0.03 54 1013.5
20260830162102 25 266 11.3 19.3 0.00 0.03 0.03 54 1013.5
20260830162002 25 264 11.3 19.3 0.00 0.03 0.03 54 1013.5
20260830161901 25 281 11.3 19.3 0.00 0.03 0.03 54 1013.5
20260830161802 25 288 11.3 19.3 0.00 0.03 0.03 54 1013.5
20260830161705 25 288 11.3 19.3 0.00 0.03 0.03 54 1013.5
20260830161701 25 287 11.3 19.3 0.00 0.03 0.03 54 1013.5
20260830161653 25 291 11.3 19.3 0.00 0.03 0.03 54 1013.5
20260830161644 25 247 9.7 19.3 0.00 0.03 0.03 54 1013.5
20260830161640 25 276 9.7 19.3 0.00 0.03 0.03 54 1013.5
20260830161425 25 261 9.7 19.3 0.00 0.03 0.03 54 1013.5
20260830161417 25 278 11.3 19.3 0.00 0.03 0.03 54 1013.5
20260830161413 25 291 11.3 19.3 0.00 0.03 0.03 54 1013.5
20260830161101 25 270 9.7 19.3 0.00 0.03 0.03 54 1013.5
20260830161001 25 240 9.7 19.3 0.00 0.03 0.03 54 1013.5
20260830160901 25 286 9.7 19.3 0.00 0.03 0.03 55 1013.5
20260830160805 25 242 11.3 19.3 0.00 0.03 0.03 55 1013.5
20260830160701 25 286 9.7 19.3 0.00 0.03 0.03 54 1013.5
20260830160647 25 228 9.7 16.1 0.00 0.03 0.03 54 1013.5
20260830160642 25 211 9.7 19.3 0.00 0.03 0.03 54 1013.5
20260830160638 25 273 9.7 19.3 0.00 0.03 0.03 55 1013.5
20260830160423 25 233 9.7 19.3 0.00 0.03 0.03 55 1013.5
20260830160418 25 296 9.7 19.3 0.00 0.03 0.03 54 1013.5
20260830160411 25 228 9.7 16.1 0.00 0.03 0.03 54 1013.5
20260830160100 25 239 8.0 16.1 0.00 0.03 0.03 54 1013.5
20260830160001 25 277 8.0 16.1 0.00 0.03 0.03 54 1013.5
20260830155901 25 255 8.0 17.7 0.00 0.03 0.03 54 1013.5
20260830155801 25 261 8.0 17.7 0.00 0.03 0.03 55 1013.5
20260830155701 25 232 8.0 17.7 0.00 0.03 0.03 54 1013.5
20260830155601 25 279 8.0 17.7 0.00 0.03 0.03 55 1013.5
20260830155501 25 238 8.0 17.7 0.00 0.03 0.03 55 1013.5
20260830155401 25 268 8.0 17.7 0.00 0.03 0.03 54 1013.5
20260830155301 25 239 6.4 17.7 0.00 0.03 0.03 54 1013.5
20260830155201 25 252 8.0 17.7 0.00 0.03 0.03 54 1013.5
20260830155101 25 257 8.0 17.7 0.00 0.03 0.03 54 1013.5
20260830155001 25 250 8.0 17.7 0.00 0.03 0.03 55 1013.5
20260830154901 25 280 8.0 17.7 0.00 0.03 0.03 54 1013.5
20260830154800 25 242 8.0 17.7 0.00 0.03 0.03 55 1013.5
20260830154701 25 259 8.0 17.7 0.00 0.03 0.03 55 1013.5
20260830154601 25 281 8.0 17.7 0.00 0.03 0.03 53 1013.5
20260830154501 25 239 9.7 17.7 0.00 0.03 0.03 54 1013.6
20260830154401 25 272 9.7 17.7 0.00 0.03 0.03 54 1013.5
20260830154301 25 233 11.3 17.7 0.00 0.03 0.03 54 1013.5
20260830154201 25 229 11.3 17.7 0.00 0.03 0.03 54 1013.5
20260830154101 25 216 9.7 17.7 0.00 0.03 0.03 53 1013.6
20260830154001 25 275 9.7 17.7 0.00 0.03 0.03 53 1013.6
20260830153925 25 248 9.7 17.7 0.00 0.03 0.03 53 1013.6
20260830153921 25 240 9.7 16.1 0.00 0.03 0.03 53 1013.6
20260830153914 25 270 9.7 16.1 0.00 0.03 0.03 53 1013.6
20260830153601 25 252 9.7 16.1 0.00 0.03 0.03 53 1013.5
20260830153501 25 286 8.0 16.1 0.00 0.03 0.03 53 1013.6
20260830153401 25 236 8.0 16.1 0.00 0.03 0.03 53 1013.6
20260830153301 25 263 8.0 16.1 0.00 0.03 0.03 53 1013.6
20260830153201 25 248 8.0 16.1 0.00 0.03 0.03 54 1013.6
20260830153101 25 198 8.0 16.1 0.00 0.03 0.03 54 1013.6
20260830153001 25 272 8.0 16.1 0.00 0.03 0.03 55 1013.6
20260830152901 25 283 9.7 19.3 0.00 0.03 0.03 54 1013.6
20260830152801 25 234 9.7 19.3 0.00 0.03 0.03 55 1013.6
20260830152701 25 260 9.7 19.3 0.00 0.03 0.03 54 1013.6
20260830152601 25 277 9.7 19.3 0.00 0.03 0.03 53 1013.6
20260830152501 25 204 9.7 19.3 0.00 0.03 0.03 53 1013.6
20260830152401 25 200 9.7 19.3 0.00 0.03 0.03 53 1013.6
20260830152301 25 207 9.7 24.1 0.00 0.03 0.03 53 1013.6
20260830152201 25 225 9.7 24.1 0.00 0.03 0.03 53 1013.7
20260830152102 25 263 9.7 24.1 0.00 0.03 0.03 53 1013.7
20260830152001 25 253 9.7 24.1 0.00 0.03 0.03 53 1013.6
20260830151924 25 275 9.7 24.1 0.00 0.03 0.03 54 1013.6
20260830151920 25 286 9.7 24.1 0.00 0.03 0.03 54 1013.6
20260830151911 25 254 9.7 24.1 0.00 0.03 0.03 54 1013.7
20260830151601 25 244 9.7 24.1 0.00 0.03 0.03 54 1013.6
20260830151501 25 251 9.7 24.1 0.00 0.03 0.03 54 1013.7
20260830151424 25 257 9.7 24.1 0.00 0.03 0.03 53 1013.7
20260830151420 25 285 9.7 22.5 0.00 0.03 0.03 53 1013.7
20260830151412 25 244 9.7 16.1 0.00 0.03 0.03 53 1013.6
20260830151147 25 261 9.7 16.1 0.00 0.03 0.03 54 1013.7
20260830151143 25 246 9.7 16.1 0.00 0.03 0.03 53 1013.6
20260830151139 25 208 9.7 16.1 0.00 0.03 0.03 53 1013.6
20260830150923 25 246 9.7 16.1 0.00 0.03 0.03 53 1013.6
20260830150919 25 271 9.7 16.1 0.00 0.03 0.03 53 1013.6
20260830150912 25 261 9.7 16.1 0.00 0.03 0.03 54 1013.7
20260830150601 25 209 9.7 16.1 0.00 0.03 0.03 53 1013.6
20260830150501 25 262 9.7 16.1 0.00 0.03 0.03 53 1013.6
20260830150424 25 256 9.7 16.1 0.00 0.03 0.03 53 1013.6
20260830150420 25 263 8.0 16.1 0.00 0.03 0.03 54 1013.7
20260830150412 26 271 8.0 16.1 0.00 0.03 0.03 54 1013.6
20260830150100 26 227 8.0 16.1 0.00 0.03 0.03 53 1013.7
20260830150001 26 260 8.0 16.1 0.00 0.03 0.03 54 1013.7
20260830145901 26 246 8.0 16.1 0.00 0.03 0.03 53 1013.7
20260830145801 26 273 8.0 14.5 0.00 0.03 0.03 53 1013.7
20260830145701 26 254 8.0 14.5 0.00 0.03 0.03 53 1013.7
20260830145601 26 229 8.0 14.5 0.00 0.03 0.03 54 1013.7
20260830145501 26 224 8.0 14.5 0.00 0.03 0.03 53 1013.6
20260830145424 26 275 8.0 16.1 0.00 0.03 0.03 53 1013.6
20260830145420 26 265 9.7 16.1 0.00 0.03 0.03 52 1013.6
20260830145412 26 249 9.7 16.1 0.00 0.03 0.03 53 1013.6
20260830145100 26 267 9.7 16.1 0.00 0.03 0.03 53 1013.6
20260830145000 26 275 9.7 16.1 0.00 0.03 0.03 53 1013.6
20260830144923 26 255 9.7 16.1 0.00 0.03 0.03 52 1013.6
20260830144919 26 290 9.7 16.1 0.00 0.03 0.03 53 1013.6
20260830144911 26 246 9.7 16.1 0.00 0.03 0.03 52 1013.6
20260830144602 26 294 9.7 16.1 0.00 0.03 0.03 52 1013.6
20260830144502 26 238 9.7 16.1 0.00 0.03 0.03 52 1013.7
20260830144402 26 271 9.7 16.1 0.00 0.03 0.03 53 1013.6
20260830144301 26 273 8.0 16.1 0.00 0.03 0.03 53 1013.7
20260830144201 26 256 9.7 14.5 0.00 0.03 0.03 52 1013.7
20260830144101 26 252 8.0 14.5 0.00 0.03 0.03 52 1013.7
20260830144003 26 217 8.0 14.5 0.00 0.03 0.03 52 1013.7
20260830143901 26 244 9.7 14.5 0.00 0.03 0.03 51 1013.7
20260830143801 26 237 9.7 17.7 0.00 0.03 0.03 52 1013.7
20260830143701 26 263 9.7 17.7 0.00 0.03 0.03 51 1013.6
20260830143651 26 309 9.7 17.7 0.00 0.03 0.03 51 1013.6
20260830143644 26 270 9.7 17.7 0.00 0.03 0.03 51 1013.6
20260830143640 26 275 9.7 17.7 0.00 0.03 0.03 51 1013.6
20260830143424 26 254 9.7 17.7 0.00 0.03 0.03 52 1013.6
20260830143420 26 302 9.7 17.7 0.00 0.03 0.03 51 1013.7
20260830143412 26 309 9.7 17.7 0.00 0.03 0.03 51 1013.6
20260830143101 26 251 11.3 19.3 0.00 0.03 0.03 50 1013.6
20260830143001 26 257 11.3 19.3 0.00 0.03 0.03 50 1013.7
20260830142901 26 257 11.3 19.3 0.00 0.03 0.03 51 1013.7
20260830142800 26 269 11.3 19.3 0.00 0.03 0.03 51 1013.7
20260830142701 26 323 9.7 19.3 0.00 0.03 0.03 51 1013.7
20260830142601 26 288 9.7 19.3 0.00 0.03 0.03 51 1013.7
20260830142501 26 294 9.7 19.3 0.00 0.03 0.03 50 1013.7
20260830142424 26 239 9.7 19.3 0.00 0.03 0.03 50 1013.7
20260830142420 26 282 8.0 19.3 0.00 0.03 0.03 51 1013.7
20260830142412 26 246 8.0 19.3 0.00 0.03 0.03 51 1013.7
20260830142100 26 277 6.4 19.3 0.00 0.03 0.03 52 1013.7
20260830141959 26 231 6.4 19.3 0.00 0.03 0.03 52 1013.7
20260830141859 26 272 6.4 19.3 0.00 0.03 0.03 53 1013.7
20260830141759 26 309 8.0 19.3 0.00 0.03 0.03 54 1013.7
20260830141703 26 328 8.0 19.3 0.00 0.03 0.03 53 1013.7
20260830141659 26 329 8.0 19.3 0.00 0.03 0.03 53 1013.7
20260830141559 26 285 8.0 19.3 0.00 0.03 0.03 52 1013.7
20260830141457 26 257 9.7 19.3 0.00 0.03 0.03 53 1013.8
20260830141358 26 265 9.7 19.3 0.00 0.03 0.03 52 1013.8
20260830141257 26 291 9.7 19.3 0.00 0.03 0.03 51 1013.8
20260830141201 26 277 11.3 19.3 0.00 0.03 0.03 51 1013.8
20260830141154 26 277 11.3 19.3 0.00 0.03 0.03 51 1013.8
20260830141053 26 284 11.3 19.3 0.00 0.03 0.03 52 1013.8
20260830140947 26 268 11.3 17.7 0.00 0.03 0.03 51 1013.8
20260830140847 26 277 11.3 17.7 0.00 0.03 0.03 52 1013.8
20260830140748 26 254 11.3 17.7 0.00 0.03 0.03 51 1013.8
20260830140701 26 263 9.7 17.7 0.00 0.03 0.03 51 1013.7
20260830140647 26 247 9.7 17.7 0.00 0.03 0.03 51 1013.7
20260830140546 26 284 9.7 17.7 0.00 0.03 0.03 51 1013.8
20260830140441 26 261 9.7 17.7 0.00 0.03 0.03 51 1013.8
20260830140341 26 265 9.7 17.7 0.00 0.03 0.03 51 1013.8
20260830140241 26 255 9.7 17.7 0.00 0.03 0.03 51 1013.8
20260830140200 26 248 8.0 17.7 0.00 0.03 0.03 51 1013.8
20260830140146 26 297 8.0 17.7 0.00 0.03 0.03 50 1013.9
20260830140142 26 257 8.0 17.7 0.00 0.03 0.03 51 1013.8
20260830140138 26 245 6.4 14.5 0.00 0.03 0.03 51 1013.9
20260830140134 26 275 8.0 17.7 0.00 0.03 0.03 50 1013.8
20260830140130 26 252 6.4 17.7 0.00 0.03 0.03 49 1013.8
20260830140126 26 246 6.4 14.5 0.00 0.03 0.03 50 1013.8
20260830140122 26 242 6.4 14.5 0.00 0.03 0.03 50 1013.8
20260830135649 26 245 6.4 14.5 0.00 0.03 0.03 51 1013.9
20260830135645 26 262 6.4 14.5 0.00 0.03 0.03 51 1013.8
20260830135641 26 250 6.4 14.5 0.00 0.03 0.03 52 1013.9
20260830135420 26 250 6.4 16.1 0.00 0.03 0.03 52 1013.8
20260830135416 26 263 6.4 17.7 0.00 0.03 0.03 53 1013.9
20260830135134 26 309 8.0 17.7 0.00 0.03 0.03 50 1013.9
20260830135033 26 309 9.7 22.5 0.00 0.03 0.03 51 1013.9
20260830134933 26 309 9.7 22.5 0.00 0.03 0.03 51 1013.9
20260830134829 26 267 11.3 22.5 0.00 0.03 0.03 51 1013.8
20260830134729 26 266 11.3 22.5 0.00 0.03 0.03 52 1013.9
20260830134705 26 269 12.9 22.5 0.00 0.03 0.03 50 1013.9
20260830134629 26 270 12.9 22.5 0.00 0.03 0.03 50 1013.9
20260830134529 26 274 12.9 22.5 0.00 0.03 0.03 50 1013.9
20260830134429 27 264 12.9 22.5 0.00 0.03 0.03 50 1013.9
20260830134330 27 272 12.9 22.5 0.00 0.03 0.03 51 1013.9
20260830134230 27 255 12.9 22.5 0.00 0.03 0.03 50 1013.9
20260830134202 27 269 12.9 22.5 0.00 0.03 0.03 50 1013.9
20260830134131 27 294 12.9 22.5 0.00 0.03 0.03 50 1013.9
20260830134029 27 270 11.3 22.5 0.00 0.03 0.03 51 1013.9
20260830133929 27 276 11.3 22.5 0.00 0.03 0.03 49 1013.8
20260830133829 27 308 11.3 22.5 0.00 0.03 0.03 51 1013.8
20260830133729 27 335 9.7 22.5 0.00 0.03 0.03 50 1013.8
20260830133701 27 266 9.7 22.5 0.00 0.03 0.03 50 1013.9
20260830133629 27 270 9.7 22.5 0.00 0.03 0.03 51 1013.9
20260830133529 27 275 8.0 22.5 0.00 0.03 0.03 50 1013.8
20260830133429 27 297 9.7 22.5 0.00 0.03 0.03 51 1013.8
20260830133422 27 234 8.0 14.5 0.00 0.03 0.03 52 1013.9
20260830133416 27 294 8.0 14.5 0.00 0.03 0.03 52 1013.9
20260830133412 27 318 8.0 14.5 0.00 0.03 0.03 52 1013.9
20260830133129 27 261 8.0 14.5 0.00 0.03 0.03 53 1013.9
20260830133029 27 314 8.0 14.5 0.00 0.03 0.03 52 1013.9
20260830132929 27 290 8.0 14.5 0.00 0.03 0.03 52 1013.9
20260830132829 27 288 8.0 17.7 0.00 0.03 0.03 52 1013.9
20260830132729 27 308 8.0 19.3 0.00 0.03 0.03 52 1013.9
20260830132701 27 295 9.7 19.3 0.00 0.03 0.03 51 1014.1
20260830132655 27 234 9.7 19.3 0.00 0.03 0.03 51 1014.1
20260830132645 27 240 9.7 19.3 0.00 0.03 0.03 51 1014.1
20260830132641 27 268 9.7 19.3 0.00 0.03 0.03 52 1014.1
20260830132637 27 256 8.0 19.3 0.00 0.03 0.03 50 1014.1
20260830132416 27 210 8.0 19.3 0.00 0.03 0.03 52 1013.9
20260830132412 27 220 8.0 19.3 0.00 0.03 0.03 52 1013.9
20260830132128 27 261 9.7 19.3 0.00 0.03 0.03 52 1014.1
20260830132029 27 240 9.7 19.3 0.00 0.03 0.03 52 1014.1
20260830131929 27 227 9.7 19.3 0.00 0.03 0.03 52 1014.1
20260830131829 27 267 9.7 19.3 0.00 0.03 0.03 52 1014.1
20260830131729 27 245 9.7 19.3 0.00 0.03 0.03 53 1014.2
20260830131701 26 285 9.7 19.3 0.00 0.03 0.03 53 1014.1
20260830131629 26 290 9.7 19.3 0.00 0.03 0.03 53 1014.1
20260830131529 26 313 9.7 19.3 0.00 0.03 0.03 52 1014.1
20260830131429 26 312 9.7 19.3 0.00 0.03 0.03 52 1014.1
20260830131329 26 270 9.7 19.3 0.00 0.03 0.03 52 1014.1
20260830131245 26 322 9.7 19.3 0.00 0.03 0.03 51 1014.2
20260830131241 26 273 8.0 19.3 0.00 0.03 0.03 52 1014.1
20260830131232 26 298 8.0 19.3 0.00 0.03 0.03 52 1014.1
20260830131030 26 320 8.0 19.3 0.00 0.03 0.03 52 1014.2
20260830130929 26 273 8.0 19.3 0.00 0.03 0.03 53 1014.1
20260830130829 26 296 8.0 19.3 0.00 0.03 0.03 53 1014.1
20260830130729 26 254 6.4 16.1 0.00 0.03 0.03 53 1014.1
20260830130701 26 298 6.4 16.1 0.00 0.03 0.03 53 1014.1
20260830130629 26 301 6.4 16.1 0.00 0.03 0.03 54 1014.1
20260830130529 26 299 8.0 14.5 0.00 0.03 0.03 53 1014.1
20260830130429 26 267 8.0 17.7 0.00 0.03 0.03 54 1014.2
20260830130416 26 306 9.7 17.7 0.00 0.03 0.03 52 1014.2
20260830130412 26 294 9.7 19.3 0.00 0.03 0.03 53 1014.2
20260830130129 26 294 9.7 19.3 0.00 0.03 0.03 52 1014.2
20260830130029 26 307 9.7 19.3 0.00 0.03 0.03 53 1014.2
20260830125929 26 275 9.7 19.3 0.00 0.03 0.03 54 1014.3
20260830125829 26 294 9.7 19.3 0.00 0.03 0.03 54 1014.2
20260830125729 26 270 9.7 19.3 0.00 0.03 0.03 53 1014.3
20260830125701 26 316 9.7 19.3 0.00 0.03 0.03 53 1014.3
20260830125628 26 271 9.7 19.3 0.00 0.03 0.03 53 1014.3
20260830125528 26 320 9.7 19.3 0.00 0.03 0.03 53 1014.3
20260830125428 26 283 9.7 19.3 0.00 0.03 0.03 54 1014.3
20260830125421 26 262 8.0 16.1 0.00 0.03 0.03 52 1014.3
20260830125417 26 299 8.0 19.3 0.00 0.03 0.03 53 1014.3
20260830125412 26 293 9.7 16.1 0.00 0.03 0.03 53 1014.3
20260830125128 26 296 8.0 16.1 0.00 0.03 0.03 52 1014.3
20260830125029 26 304 8.0 16.1 0.00 0.03 0.03 53 1014.3
20260830124929 26 281 8.0 16.1 0.00 0.03 0.03 53 1014.3
20260830124829 26 321 9.7 19.3 0.00 0.03 0.03 53 1014.3
20260830124729 26 309 9.7 19.3 0.00 0.03 0.03 53 1014.3
20260830124701 26 311 9.7 19.3 0.00 0.03 0.03 53 1014.3
20260830124627 26 316 9.7 19.3 0.00 0.03 0.03 53 1014.3
20260830124527 26 281 9.7 19.3 0.00 0.03 0.03 53 1014.3
20260830124427 26 241 9.7 19.3 0.00 0.03 0.03 53 1014.3
20260830124327 26 257 9.7 19.3 0.00 0.03 0.03 52 1014.3
20260830124227 26 243 9.7 19.3 0.00 0.03 0.03 52 1014.3
20260830124201 26 242 9.7 19.3 0.00 0.03 0.03 52 1014.3
20260830124121 26 270 9.7 19.3 0.00 0.03 0.03 52 1014.4
20260830124021 26 261 9.7 19.3 0.00 0.03 0.03 52 1014.3
20260830123921 26 257 9.7 19.3 0.00 0.03 0.03 54 1014.4
20260830123821 26 255 9.7 19.3 0.00 0.03 0.03 53 1014.3
20260830123721 26 223 9.7 19.3 0.00 0.03 0.03 54 1014.4
20260830123701 26 254 9.7 19.3 0.00 0.03 0.03 54 1014.4
20260830123615 26 264 9.7 22.5 0.00 0.03 0.03 54 1014.4
20260830123515 26 248 11.3 22.5 0.00 0.03 0.03 53 1014.3
20260830123426 26 263 9.7 22.5 0.00 0.03 0.03 54 1014.4
20260830123420 26 294 9.7 22.5 0.00 0.03 0.03 54 1014.3
20260830123416 26 321 9.7 22.5 0.00 0.03 0.03 54 1014.3
20260830123411 26 267 9.7 22.5 0.00 0.03 0.03 54 1014.4
20260830123111 26 259 11.3 22.5 0.00 0.03 0.03 54 1014.4
20260830123012 26 260 11.3 22.5 0.00 0.03 0.03 53 1014.4
20260830122911 26 275 11.3 22.5 0.00 0.03 0.03 54 1014.4
20260830122811 26 313 11.3 22.5 0.00 0.03 0.03 54 1014.4
20260830122708 26 311 11.3 22.5 0.00 0.03 0.03 53 1014.4
20260830122701 26 285 11.3 22.5 0.00 0.03 0.03 53 1014.4
20260830122605 26 322 11.3 20.9 0.00 0.03 0.03 54 1014.5
20260830122503 26 297 11.3 20.9 0.00 0.03 0.03 53 1014.4
20260830122403 26 340 11.3 20.9 0.00 0.03 0.03 53 1014.4
20260830122306 26 321 9.7 20.9 0.00 0.03 0.03 53 1014.4
20260830122205 26 321 9.7 20.9 0.00 0.03 0.03 54 1014.4
20260830122200 26 348 9.7 20.9 0.00 0.03 0.03 54 1014.4
20260830122102 26 302 9.7 17.7 0.00 0.03 0.03 54 1014.4
20260830122001 26 311 9.7 17.7 0.00 0.03 0.03 53 1014.4
20260830121901 26 312 8.0 17.7 0.00 0.03 0.03 55 1014.4
20260830121802 25 266 8.0 17.7 0.00 0.03 0.03 55 1014.3
20260830121701 25 278 9.7 17.7 0.00 0.03 0.03 56 1014.4
20260830121601 25 277 9.7 19.3 0.00 0.03 0.03 55 1014.4
20260830121501 25 269 9.7 19.3 0.00 0.03 0.03 54 1014.3
20260830121401 25 232 9.7 19.3 0.00 0.03 0.03 56 1014.4
20260830121302 25 279 9.7 19.3 0.00 0.03 0.03 57 1014.4
20260830121201 25 306 9.7 19.3 0.00 0.03 0.03 57 1014.4
20260830121101 25 306 11.3 19.3 0.00 0.03 0.03 56 1014.4
20260830121001 25 299 11.3 19.3 0.00 0.03 0.03 57 1014.4
20260830120902 25 300 11.3 19.3 0.00 0.03 0.03 56 1014.5
20260830120801 25 316 11.3 19.3 0.00 0.03 0.03 55 1014.4
20260830120700 25 317 9.7 19.3 0.00 0.03 0.03 56 1014.4
20260830120601 25 281 9.7 19.3 0.00 0.03 0.03 55 1014.5
20260830120501 25 312 11.3 19.3 0.00 0.03 0.03 54 1014.5
20260830120400 25 321 11.3 19.3 0.00 0.03 0.03 55 1014.5
20260830120300 25 307 11.3 19.3 0.00 0.03 0.03 56 1014.5
20260830120200 25 292 9.7 19.3 0.00 0.03 0.03 55 1014.5
20260830120100 25 311 9.7 19.3 0.00 0.03 0.03 55 1014.5
20260830120000 25 300 11.3 19.3 0.00 0.03 0.03 55 1014.5
20260830115900 25 241 11.3 20.9 0.00 0.03 0.03 55 1014.5
20260830115801 25 249 11.3 20.9 0.00 0.03 0.03 55 1014.5
20260830115701 25 278 11.3 20.9 0.00 0.03 0.03 54 1014.5
20260830115652 25 263 9.7 20.9 0.00 0.03 0.03 54 1014.5
20260830115643 25 230 9.7 20.9 0.00 0.03 0.03 55 1014.5
20260830115639 25 269 9.7 20.9 0.00 0.03 0.03 55 1014.5
20260830115421 25 300 9.7 20.9 0.00 0.03 0.03 55 1014.5
20260830115417 25 282 9.7 20.9 0.00 0.03 0.03 55 1014.5
20260830115413 25 263 9.7 20.9 0.00 0.03 0.03 54 1014.5
20260830115101 25 273 9.7 20.9 0.00 0.03 0.03 54 1014.5
20260830115001 25 290 9.7 20.9 0.00 0.03 0.03 56 1014.5
20260830114901 25 288 9.7 19.3 0.00 0.03 0.03 56 1014.5
20260830114801 25 317 9.7 19.3 0.00 0.03 0.03 56 1014.5
20260830114701 25 276 11.3 20.9 0.00 0.03 0.03 56 1014.5
20260830114653 25 306 12.9 24.1 0.00 0.03 0.03 55 1014.6
20260830114645 25 294 11.3 24.1 0.00 0.03 0.03 55 1014.5
20260830114641 25 288 12.9 24.1 0.00 0.03 0.03 56 1014.5
20260830114419 25 288 12.9 24.1 0.00 0.03 0.03 55 1014.5
20260830114415 25 294 12.9 24.1 0.00 0.03 0.03 54 1014.5
20260830114411 25 306 12.9 24.1 0.00 0.03 0.03 55 1014.6
20260830114101 25 275 12.9 24.1 0.00 0.03 0.03 55 1014.5
20260830114001 25 279 12.9 24.1 0.00 0.03 0.03 54 1014.5
20260830113901 25 232 12.9 24.1 0.00 0.03 0.03 53 1014.5
20260830113801 25 245 12.9 24.1 0.00 0.03 0.03 53 1014.6
20260830113700 25 250 11.3 24.1 0.00 0.03 0.03 54 1014.6
20260830113605 25 283 11.3 22.5 0.00 0.03 0.03 55 1014.5
20260830113502 25 238 9.7 22.5 0.00 0.03 0.03 55 1014.6
20260830113401 25 236 9.7 22.5 0.00 0.03 0.03 54 1014.5
20260830113301 25 265 9.7 22.5 0.00 0.03 0.03 54 1014.6
20260830113201 25 303 9.7 19.3 0.00 0.03 0.03 55 1014.6
20260830113102 25 248 9.7 19.3 0.00 0.03 0.03 55 1014.6
20260830113001 25 285 9.7 19.3 0.00 0.03 0.03 56 1014.6
20260830112901 25 215 11.3 19.3 0.00 0.03 0.03 57 1014.6
20260830112801 25 277 11.3 19.3 0.00 0.03 0.03 58 1014.6
20260830112700 25 219 11.3 19.3 0.00 0.03 0.03 57 1014.6
20260830112600 25 258 12.9 19.3 0.00 0.03 0.03 56 1014.6
20260830112501 25 260 12.9 19.3 0.00 0.03 0.03 56 1014.6
20260830112400 25 257 14.5 19.3 0.00 0.03 0.03 57 1014.6
20260830112300 24 249 14.5 20.9 0.00 0.03 0.03 57 1014.7
20260830112201 24 267 14.5 20.9 0.00 0.03 0.03 57 1014.6
20260830112101 24 234 14.5 20.9 0.00 0.03 0.03 56 1014.6
20260830112001 24 284 12.9 20.9 0.00 0.03 0.03 56 1014.6
20260830111921 24 266 12.9 20.9 0.00 0.03 0.03 55 1014.6
20260830111917 24 278 12.9 20.9 0.00 0.03 0.03 56 1014.6
20260830111912 24 278 12.9 20.9 0.00 0.03 0.03 55 1014.6
20260830111601 24 261 12.9 20.9 0.00 0.03 0.03 55 1014.7
20260830111500 24 277 12.9 20.9 0.00 0.03 0.03 57 1014.6
20260830111401 24 269 12.9 20.9 0.00 0.03 0.03 57 1014.7
20260830111301 24 255 12.9 17.7 0.00 0.03 0.03 56 1014.8
20260830111201 24 257 12.9 17.7 0.00 0.03 0.03 56 1014.8
20260830111101 24 268 11.3 17.7 0.00 0.03 0.03 56 1014.7
20260830111001 24 254 11.3 17.7 0.00 0.03 0.03 56 1014.8
20260830110901 24 234 11.3 17.7 0.00 0.03 0.03 56 1014.8
20260830110801 24 280 12.9 17.7 0.00 0.03 0.03 55 1014.8
20260830110701 24 273 12.9 17.7 0.00 0.03 0.03 55 1014.8
20260830110600 24 256 12.9 19.3 0.00 0.03 0.03 55 1014.8
20260830110501 24 257 12.9 19.3 0.00 0.03 0.03 55 1014.8
20260830110401 25 290 12.9 20.9 0.00 0.03 0.03 55 1014.8
20260830110301 25 321 11.3 20.9 0.00 0.03 0.03 54 1014.8
20260830110200 25 265 11.3 20.9 0.00 0.03 0.03 55 1014.8
20260830110100 25 271 11.3 20.9 0.00 0.03 0.03 55 1014.8
20260830110000 25 219 11.3 20.9 0.00 0.03 0.03 54 1014.8
20260830105900 25 292 11.3 20.9 0.00 0.03 0.03 55 1014.8
20260830105800 25 266 9.7 20.9 0.00 0.03 0.03 55 1014.9
20260830105700 25 305 9.7 20.9 0.00 0.03 0.03 55 1014.9
20260830105600 25 286 9.7 20.9 0.00 0.03 0.03 55 1014.9
20260830105501 25 271 8.0 20.9 0.00 0.03 0.03 57 1014.9
20260830105400 25 271 8.0 17.7 0.00 0.03 0.03 58 1014.9
20260830105300 25 229 8.0 17.7 0.00 0.03 0.03 57 1014.9
20260830105201 25 261 9.7 17.7 0.00 0.03 0.03 58 1014.9
20260830105101 25 295 9.7 17.7 0.00 0.03 0.03 57 1014.9
20260830105001 25 240 9.7 17.7 0.00 0.03 0.03 58 1014.9
20260830104901 24 284 8.0 17.7 0.00 0.03 0.03 57 1015.0
20260830104801 24 217 8.0 14.5 0.00 0.03 0.03 58 1015.0
20260830104701 24 212 9.7 14.5 0.00 0.03 0.03 58 1015.0
20260830104604 24 260 9.7 14.5 0.00 0.03 0.03 58 1015.0
20260830104505 24 275 9.7 14.5 0.00 0.03 0.03 58 1015.0
20260830104422 24 281 9.7 14.5 0.00 0.03 0.03 57 1015.0
20260830104418 24 265 9.7 16.1 0.00 0.03 0.03 58 1015.0
20260830104414 24 261 9.7 16.1 0.00 0.03 0.03 57 1015.0
20260830104101 24 257 9.7 17.7 0.00 0.03 0.03 58 1015.0
20260830104000 24 288 9.7 17.7 0.00 0.03 0.03 57 1015.0
20260830103901 24 280 9.7 17.7 0.00 0.03 0.03 58 1015.0
20260830103801 24 300 9.7 17.7 0.00 0.03 0.03 57 1015.1
20260830103700 24 251 9.7 17.7 0.00 0.03 0.03 59 1015.1
20260830103601 24 255 9.7 17.7 0.00 0.03 0.03 57 1015.0
20260830103501 24 273 9.7 17.7 0.00 0.03 0.03 57 1015.1
20260830103401 24 221 9.7 17.7 0.00 0.03 0.03 57 1015.1
20260830103301 24 284 9.7 17.7 0.00 0.03 0.03 57 1015.0
20260830103201 24 244 9.7 17.7 0.00 0.03 0.03 58 1015.1
20260830103101 24 241 11.3 17.7 0.00 0.03 0.03 57 1015.0
20260830103001 24 301 9.7 17.7 0.00 0.03 0.03 58 1015.1
20260830102901 23 308 9.7 17.7 0.00 0.03 0.03 58 1015.1
20260830102801 23 268 9.7 17.7 0.00 0.03 0.03 58 1015.1
20260830102700 23 282 9.7 17.7 0.00 0.03 0.03 58 1015.0
20260830102600 23 265 9.7 17.7 0.00 0.03 0.03 57 1015.1
20260830102500 23 279 8.0 17.7 0.00 0.03 0.03 59 1015.1
20260830102421 23 265 8.0 17.7 0.00 0.03 0.03 59 1015.2
20260830102417 23 304 8.0 22.5 0.00 0.03 0.03 59 1015.1
20260830102413 23 252 8.0 22.5 0.00 0.03 0.03 59 1015.2
20260830102100 23 235 9.7 22.5 0.00 0.03 0.03 58 1015.2
20260830102001 23 288 9.7 22.5 0.00 0.03 0.03 58 1015.2
20260830101924 23 223 11.3 22.5 0.00 0.03 0.03 58 1015.2
20260830101918 23 221 9.7 22.5 0.00 0.03 0.03 59 1015.2
20260830101914 23 231 9.7 22.5 0.00 0.03 0.03 59 1015.2
20260830101659 23 223 11.3 22.5 0.00 0.03 0.03 59 1015.2
20260830101557 23 250 11.3 22.5 0.00 0.03 0.03 59 1015.2
20260830101457 23 271 11.3 22.5 0.00 0.03 0.03 59 1015.3
20260830101357 23 237 11.3 22.5 0.00 0.03 0.03 59 1015.3
20260830101257 23 244 11.3 20.9 0.00 0.03 0.03 58 1015.3
20260830101201 23 256 11.3 20.9 0.00 0.03 0.03 58 1015.3
20260830101157 23 214 11.3 20.9 0.00 0.03 0.03 58 1015.3
20260830101057 23 225 11.3 22.5 0.00 0.03 0.03 57 1015.3
20260830100952 23 242 11.3 22.5 0.00 0.03 0.03 58 1015.3
20260830100853 23 233 11.3 22.5 0.00 0.03 0.03 59 1015.4
20260830100752 23 229 11.3 22.5 0.00 0.03 0.03 57 1015.3
20260830100700 23 194 11.3 22.5 0.00 0.03 0.03 58 1015.3
20260830100652 23 191 11.3 22.5 0.00 0.03 0.03 58 1015.3
20260830100553 23 198 11.3 22.5 0.00 0.03 0.03 60 1015.3
20260830100453 23 308 11.3 22.5 0.00 0.03 0.03 60 1015.3
20260830100422 23 188 11.3 22.5 0.00 0.03 0.03 58 1015.3
20260830100416 23 264 9.7 22.5 0.00 0.03 0.03 58 1015.3
20260830100413 23 228 11.3 22.5 0.00 0.03 0.03 59 1015.3
20260830100153 23 234 11.3 22.5 0.00 0.03 0.03 58 1015.3
20260830100052 23 205 11.3 22.5 0.00 0.03 0.03 59 1015.3
20260830095953 23 205 11.3 22.5 0.00 0.03 0.03 59 1015.3
20260830095853 23 215 11.3 22.5 0.00 0.03 0.03 59 1015.3
20260830095752 23 205 11.3 22.5 0.00 0.03 0.03 59 1015.3
20260830095700 23 255 11.3 22.5 0.00 0.03 0.03 60 1015.3
20260830095652 23 222 11.3 22.5 0.00 0.03 0.03 60 1015.3
20260830095553 23 269 11.3 22.5 0.00 0.03 0.03 59 1015.3
20260830095453 23 226 11.3 22.5 0.00 0.03 0.03 59 1015.3
20260830095426 23 284 9.7 22.5 0.00 0.03 0.03 60 1015.4
20260830095416 23 266 11.3 22.5 0.00 0.03 0.03 59 1015.3
20260830095412 23 275 11.3 22.5 0.00 0.03 0.03 60 1015.3
20260830095149 23 288 9.7 22.5 0.00 0.03 0.03 60 1015.4
20260830095049 23 275 9.7 19.3 0.00 0.03 0.03 61 1015.4
20260830094946 23 249 9.7 17.7 0.00 0.03 0.03 60 1015.3
20260830094847 23 252 9.7 19.3 0.00 0.03 0.03 61 1015.4
20260830094747 23 298 9.7 19.3 0.00 0.03 0.03 61 1015.4
20260830094702 23 263 9.7 19.3 0.00 0.03 0.03 61 1015.4
20260830094646 23 259 9.7 19.3 0.00 0.03 0.03 61 1015.4
20260830094546 23 284 9.7 19.3 0.00 0.03 0.03 60 1015.4
20260830094446 23 195 9.7 19.3 0.00 0.03 0.03 60 1015.4
20260830094346 23 217 9.7 19.3 0.00 0.03 0.03 61 1015.4
20260830094246 23 230 9.7 19.3 0.00 0.03 0.03 61 1015.4
20260830094200 23 257 9.7 19.3 0.00 0.03 0.03 61 1015.4
20260830094147 23 271 9.7 19.3 0.00 0.03 0.03 61 1015.4
20260830094047 23 217 9.7 19.3 0.00 0.03 0.03 61 1015.4
20260830093945 23 254 9.7 19.3 0.00 0.03 0.03 61 1015.4
20260830093845 22 272 9.7 17.7 0.00 0.03 0.03 62 1015.4
20260830093745 22 313 9.7 17.7 0.00 0.03 0.03 60 1015.4
20260830093701 22 220 9.7 17.7 0.00 0.03 0.03 62 1015.4
20260830093645 22 194 9.7 17.7 0.00 0.03 0.03 61 1015.4
20260830093541 22 227 9.7 17.7 0.00 0.03 0.03 62 1015.4
20260830093440 22 252 9.7 17.7 0.00 0.03 0.03 62 1015.4
20260830093338 22 226 9.7 17.7 0.00 0.03 0.03 61 1015.4
20260830093239 22 215 9.7 17.7 0.00 0.03 0.03 61 1015.4
20260830093200 22 216 8.0 17.7 0.00 0.03 0.03 63 1015.4
20260830093151 22 211 8.0 17.7 0.00 0.03 0.03 61 1015.4
20260830093147 22 233 8.0 17.7 0.00 0.03 0.03 62 1015.4
20260830093143 22 211 8.0 17.7 0.00 0.03 0.03 63 1015.5
20260830093139 22 215 8.0 17.7 0.00 0.03 0.03 63 1015.4
20260830092915 22 276 8.0 17.7 0.00 0.03 0.03 61 1015.5
20260830092911 22 224 8.0 17.7 0.00 0.03 0.03 62 1015.4
20260830092639 22 232 8.0 17.7 0.00 0.03 0.03 62 1015.4
20260830092539 22 229 8.0 17.7 0.00 0.03 0.03 63 1015.5
20260830092439 22 223 8.0 17.7 0.00 0.03 0.03 62 1015.4
20260830092425 22 250 9.7 17.7 0.00 0.03 0.03 62 1015.5
20260830092416 22 279 9.7 17.7 0.00 0.03 0.03 62 1015.4
20260830092412 22 249 9.7 17.7 0.00 0.03 0.03 62 1015.4
20260830092134 22 256 9.7 17.7 0.00 0.03 0.03 62 1015.5
20260830092034 22 233 9.7 17.7 0.00 0.03 0.03 61 1015.5
20260830091934 22 208 9.7 17.7 0.00 0.03 0.03 61 1015.5
20260830091927 22 221 11.3 17.7 0.00 0.03 0.03 62 1015.5
20260830091917 22 276 9.7 17.7 0.00 0.03 0.03 62 1015.4
20260830091913 22 222 9.7 17.7 0.00 0.03 0.03 62 1015.4
20260830091635 22 213 11.3 19.3 0.00 0.03 0.03 62 1015.5
20260830091535 22 253 11.3 19.3 0.00 0.03 0.03 62 1015.5
20260830091435 22 277 11.3 19.3 0.00 0.03 0.03 62 1015.4
20260830091335 22 282 11.3 19.3 0.00 0.03 0.03 62 1015.5
20260830091235 22 228 11.3 24.1 0.00 0.03 0.03 62 1015.5
20260830091200 22 279 11.3 24.1 0.00 0.03 0.03 62 1015.5
20260830091135 22 261 11.3 24.1 0.00 0.03 0.03 62 1015.5
20260830091035 22 202 11.3 24.1 0.00 0.03 0.03 62 1015.5
20260830090934 22 248 11.3 24.1 0.00 0.03 0.03 63 1015.5
20260830090836 22 267 11.3 24.1 0.00 0.03 0.03 63 1015.5
20260830090734 22 257 11.3 24.1 0.00 0.03 0.03 63 1015.6
20260830090701 22 227 11.3 24.1 0.00 0.03 0.03 63 1015.6
20260830090634 22 237 11.3 24.1 0.00 0.03 0.03 62 1015.6
20260830090534 22 236 11.3 24.1 0.00 0.03 0.03 63 1015.6
20260830090431 22 233 11.3 24.1 0.00 0.03 0.03 62 1015.6
20260830090330 22 192 11.3 24.1 0.00 0.03 0.03 64 1015.6
20260830090231 22 282 11.3 20.9 0.00 0.03 0.03 64 1015.6
20260830090200 22 255 11.3 20.9 0.00 0.03 0.03 64 1015.6
20260830090131 22 238 11.3 20.9 0.00 0.03 0.03 63 1015.6
20260830090032 22 255 11.3 20.9 0.00 0.03 0.03 63 1015.6
20260830085931 22 254 11.3 20.9 0.00 0.03 0.03 63 1015.6
20260830085831 22 267 9.7 19.3 0.00 0.03 0.03 63 1015.7
20260830085731 22 259 9.7 19.3 0.00 0.03 0.03 65 1015.6
20260830085700 22 290 9.7 19.3 0.00 0.03 0.03 65 1015.7
20260830085631 21 251 9.7 19.3 0.00 0.03 0.03 67 1015.7
20260830085530 21 213 9.7 19.3 0.00 0.03 0.03 66 1015.7
20260830085429 21 274 9.7 19.3 0.00 0.03 0.03 66 1015.6
20260830085329 21 267 9.7 17.7 0.00 0.03 0.03 65 1015.6
20260830085229 21 214 9.7 17.7 0.00 0.03 0.03 65 1015.6
20260830085201 21 227 11.3 17.7 0.00 0.03 0.03 65 1015.6
20260830085146 21 274 11.3 19.3 0.00 0.03 0.03 66 1015.6
20260830085142 21 242 11.3 17.7 0.00 0.03 0.03 65 1015.6
20260830085138 21 277 11.3 17.7 0.00 0.03 0.03 66 1015.6
20260830085134 21 300 11.3 17.7 0.00 0.03 0.03 65 1015.6
20260830084915 21 271 11.3 19.3 0.00 0.03 0.03 66 1015.5
20260830084911 21 290 11.3 19.3 0.00 0.03 0.03 66 1015.6
20260830084629 21 271 11.3 19.3 0.00 0.03 0.03 66 1015.6
20260830084526 21 260 11.3 19.3 0.00 0.03 0.03 66 1015.6
20260830084430 21 262 12.9 24.1 0.00 0.03 0.03 66 1015.5
20260830084426 21 285 11.3 19.3 0.00 0.03 0.03 66 1015.6
20260830084416 21 265 12.9 24.1 0.00 0.03 0.03 67 1015.6
20260830084412 21 272 12.9 24.1 0.00 0.03 0.03 66 1015.6
20260830084127 21 273 12.9 24.1 0.00 0.03 0.03 66 1015.5
20260830084026 21 292 12.9 24.1 0.00 0.03 0.03 66 1015.6
20260830083926 21 260 14.5 24.1 0.00 0.03 0.03 67 1015.6
20260830083827 21 264 12.9 24.1 0.00 0.03 0.03 66 1015.6
20260830083727 21 281 14.5 24.1 0.00 0.03 0.03 67 1015.6
20260830083700 21 286 14.5 24.1 0.00 0.03 0.03 66 1015.6
20260830083627 21 279 14.5 24.1 0.00 0.03 0.03 66 1015.6
20260830083526 21 273 14.5 24.1 0.00 0.03 0.03 66 1015.6
20260830083426 21 281 14.5 24.1 0.00 0.03 0.03 66 1015.6
20260830083326 21 259 14.5 22.5 0.00 0.03 0.03 67 1015.6
20260830083226 21 250 12.9 22.5 0.00 0.03 0.03 66 1015.6
20260830083201 21 246 12.9 22.5 0.00 0.03 0.03 66 1015.6
20260830083127 21 279 12.9 22.5 0.00 0.03 0.03 67 1015.6
20260830083026 21 244 12.9 22.5 0.00 0.03 0.03 67 1015.6
20260830082927 21 281 12.9 22.5 0.00 0.03 0.03 67 1015.6
20260830082827 21 254 12.9 22.5 0.00 0.03 0.03 66 1015.6
20260830082727 21 200 12.9 22.5 0.00 0.03 0.03 67 1015.7
20260830082700 21 234 12.9 22.5 0.00 0.03 0.03 67 1015.7
20260830082623 21 277 12.9 22.5 0.00 0.03 0.03 66 1015.5
20260830082522 21 257 12.9 22.5 0.00 0.03 0.03 67 1015.6
20260830082422 21 271 12.9 20.9 0.00 0.03 0.03 67 1015.6
20260830082322 21 218 12.9 20.9 0.00 0.03 0.03 67 1015.6
20260830082222 21 252 12.9 20.9 0.00 0.03 0.03 67 1015.6
20260830082201 21 259 11.3 20.9 0.00 0.03 0.03 67 1015.6
20260830082122 21 278 11.3 20.9 0.00 0.03 0.03 68 1015.6
20260830082022 21 228 11.3 20.9 0.00 0.03 0.03 68 1015.7
20260830081922 21 256 11.3 20.9 0.00 0.03 0.03 68 1015.7
20260830081822 21 229 11.3 20.9 0.00 0.03 0.03 68 1015.7
20260830081722 21 229 11.3 20.9 0.00 0.03 0.03 68 1015.6
20260830081702 21 290 12.9 20.9 0.00 0.03 0.03 68 1015.6
20260830081623 21 256 12.9 20.9 0.00 0.03 0.03 68 1015.7
20260830081524 21 260 12.9 20.9 0.00 0.03 0.03 67 1015.6
20260830081423 21 279 12.9 20.9 0.00 0.03 0.03 68 1015.7
20260830081323 21 269 12.9 20.9 0.00 0.03 0.03 68 1015.7
20260830081223 21 248 12.9 25.7 0.00 0.03 0.03 68 1015.7
20260830081200 21 255 12.9 25.7 0.00 0.03 0.03 68 1015.7
20260830081123 21 282 12.9 25.7 0.00 0.03 0.03 68 1015.7
20260830081022 21 275 14.5 25.7 0.00 0.03 0.03 67 1015.7
20260830080922 20 271 14.5 25.7 0.00 0.03 0.03 68 1015.7
20260830080823 20 267 14.5 25.7 0.00 0.03 0.03 67 1015.7
20260830080719 20 262 12.9 25.7 0.00 0.03 0.03 68 1015.7
20260830080701 20 288 12.9 25.7 0.00 0.03 0.03 68 1015.7
20260830080618 20 250 12.9 25.7 0.00 0.03 0.03 68 1015.7
20260830080519 20 221 12.9 25.7 0.00 0.03 0.03 68 1015.7
20260830080418 20 265 12.9 25.7 0.00 0.03 0.03 68 1015.7
20260830080318 20 220 11.3 25.7 0.00 0.03 0.03 67 1015.7
20260830080218 20 195 11.3 24.1 0.00 0.03 0.03 67 1015.6
20260830080201 20 235 11.3 22.5 0.00 0.03 0.03 67 1015.6
20260830080118 20 270 11.3 22.5 0.00 0.03 0.03 68 1015.7
20260830080019 20 227 11.3 22.5 0.00 0.03 0.03 68 1015.7
20260830075919 20 286 11.3 22.5 0.00 0.03 0.03 69 1015.7
20260830075818 20 244 11.3 22.5 0.00 0.03 0.03 69 1015.7
20260830075718 20 265 11.3 22.5 0.00 0.03 0.03 69 1015.7
20260830075701 20 246 11.3 22.5 0.00 0.03 0.03 69 1015.7
20260830075619 20 288 11.3 22.5 0.00 0.03 0.03 69 1015.7
20260830075519 20 245 11.3 22.5 0.00 0.03 0.03 68 1015.7
20260830075418 20 267 11.3 22.5 0.00 0.03 0.03 69 1015.7
20260830075315 20 272 11.3 22.5 0.00 0.03 0.03 69 1015.7
20260830075212 20 269 11.3 22.5 0.00 0.03 0.03 68 1015.7
20260830075201 20 259 11.3 22.5 0.00 0.03 0.03 68 1015.7
20260830075112 20 215 11.3 22.5 0.00 0.03 0.03 69 1015.7
20260830075012 20 225 11.3 20.9 0.00 0.03 0.03 68 1015.7
20260830074912 20 271 12.9 24.1 0.00 0.03 0.03 69 1015.7
20260830074812 20 227 11.3 25.7 0.00 0.03 0.03 69 1015.7
20260830074712 20 243 12.9 25.7 0.00 0.03 0.03 70 1015.7
20260830074701 20 202 12.9 25.7 0.00 0.03 0.03 70 1015.7
20260830074613 20 251 11.3 25.7 0.00 0.03 0.03 70 1015.7
20260830074511 20 308 12.9 25.7 0.00 0.03 0.03 70 1015.7
20260830074411 20 236 12.9 25.7 0.00 0.03 0.03 69 1015.6
20260830074310 20 272 12.9 25.7 0.00 0.03 0.03 69 1015.7
20260830074210 20 269 12.9 25.7 0.00 0.03 0.03 69 1015.7
20260830074201 20 234 12.9 25.7 0.00 0.03 0.03 69 1015.7
20260830074110 20 267 12.9 25.7 0.00 0.03 0.03 69 1015.7
20260830074010 20 235 12.9 25.7 0.00 0.03 0.03 70 1015.7
20260830073910 20 227 12.9 24.1 0.00 0.03 0.03 70 1015.6
20260830073806 20 250 12.9 22.5 0.00 0.03 0.03 70 1015.7
20260830073701 20 247 12.9 22.5 0.00 0.03 0.03 71 1015.7
20260830073606 20 246 12.9 22.5 0.00 0.03 0.03 71 1015.7
20260830073504 20 225 12.9 22.5 0.00 0.03 0.03 70 1015.6
20260830073405 20 269 12.9 22.5 0.00 0.03 0.03 71 1015.6
20260830073304 20 252 12.9 22.5 0.00 0.03 0.03 71 1015.7
20260830073205 20 269 11.3 22.5 0.00 0.03 0.03 70 1015.7
20260830073201 20 277 11.3 22.5 0.00 0.03 0.03 70 1015.7
20260830073105 20 225 11.3 22.5 0.00 0.03 0.03 70 1015.6
20260830073005 20 270 11.3 22.5 0.00 0.03 0.03 70 1015.8
20260830072902 20 220 9.7 22.5 0.00 0.03 0.03 71 1015.7
20260830072802 20 219 9.7 17.7 0.00 0.03 0.03 71 1015.6
20260830072700 20 259 9.7 17.7 0.00 0.03 0.03 71 1015.6
20260830072601 20 273 9.7 17.7 0.00 0.03 0.03 71 1015.6
20260830072501 20 259 9.7 17.7 0.00 0.03 0.03 71 1015.6
20260830072425 20 241 9.7 17.7 0.00 0.03 0.03 72 1015.6
20260830072418 20 296 8.0 17.7 0.00 0.03 0.03 72 1015.6
20260830072414 19 252 9.7 16.1 0.00 0.03 0.03 71 1015.6
20260830072101 19 226 9.7 24.1 0.00 0.03 0.03 72 1015.6
20260830072001 19 218 9.7 24.1 0.00 0.03 0.03 72 1015.6
20260830071931 19 287 9.7 24.1 0.00 0.03 0.03 72 1015.6
20260830071927 19 223 11.3 24.1 0.00 0.03 0.03 72 1015.6
20260830071919 19 267 11.3 24.1 0.00 0.03 0.03 72 1015.6
20260830071910 19 257 9.7 24.1 0.00 0.03 0.03 72 1015.6
20260830071647 19 244 9.7 24.1 0.00 0.03 0.03 72 1015.6
20260830071643 19 236 11.3 24.1 0.00 0.03 0.03 72 1015.6
20260830071425 19 210 9.7 24.1 0.00 0.03 0.03 72 1015.6
20260830071418 19 202 9.7 24.1 0.00 0.03 0.03 72 1015.6
20260830071414 19 287 9.7 24.1 0.00 0.03 0.03 72 1015.6
20260830071101 19 229 9.7 24.1 0.00 0.03 0.03 73 1015.6
20260830071001 19 274 9.7 19.3 0.00 0.03 0.03 73 1015.6
20260830070924 19 282 9.7 19.3 0.00 0.03 0.03 74 1015.6
20260830070916 19 271 9.7 19.3 0.00 0.03 0.03 73 1015.6
20260830070912 19 264 9.7 19.3 0.00 0.03 0.03 73 1015.6
20260830070601 19 254 9.7 19.3 0.00 0.03 0.03 72 1015.6
20260830070501 18 230 9.7 19.3 0.00 0.03 0.03 74 1015.5
20260830070401 18 218 9.7 17.7 0.00 0.03 0.03 73 1015.5
20260830070300 18 244 8.0 17.7 0.00 0.03 0.03 73 1015.5
20260830070201 18 288 8.0 17.7 0.00 0.03 0.03 74 1015.5
20260830070101 18 278 6.4 14.5 0.00 0.03 0.03 74 1015.5
20260830070001 18 207 6.4 14.5 0.00 0.03 0.03 74 1015.5
20260830065901 18 253 6.4 14.5 0.00 0.03 0.03 74 1015.6
20260830065800 18 278 4.8 14.5 0.00 0.03 0.03 73 1015.6
20260830065700 18 203 4.8 14.5 0.00 0.03 0.03 75 1015.6
20260830065601 18 223 3.2 14.5 0.00 0.03 0.03 75 1015.6
20260830065501 18 273 3.2 11.3 0.00 0.03 0.03 75 1015.5
20260830065425 18 283 3.2 9.7 0.00 0.03 0.03 76 1015.6
20260830065417 18 284 3.2 11.3 0.00 0.03 0.03 76 1015.5
20260830065413 18 226 3.2 11.3 0.00 0.03 0.03 76 1015.5
20260830065101 18 226 4.8 11.3 0.00 0.03 0.03 76 1015.5
20260830065001 18 219 4.8 11.3 0.00 0.03 0.03 75 1015.5
20260830064902 18 219 4.8 11.3 0.00 0.03 0.03 76 1015.5
20260830064805 18 219 4.8 11.3 0.00 0.03 0.03 76 1015.5
20260830064700 18 243 4.8 11.3 0.00 0.03 0.03 76 1015.5
20260830064644 18 213 4.8 11.3 0.00 0.03 0.03 77 1015.5
20260830064636 18 243 4.8 11.3 0.00 0.03 0.03 76 1015.5
20260830064632 18 254 4.8 11.3 0.00 0.03 0.03 76 1015.5
20260830064628 18 255 4.8 11.3 0.00 0.03 0.03 76 1015.5
20260830064624 18 284 4.8 8.0 0.00 0.03 0.03 76 1015.6
20260830064616 18 234 3.2 8.0 0.00 0.03 0.03 76 1015.5
20260830064146 18 234 3.2 8.0 0.00 0.03 0.03 76 1015.5
20260830064142 18 234 3.2 8.0 0.00 0.03 0.03 76 1015.5
20260830063924 18 214 3.2 6.4 0.00 0.03 0.03 76 1015.5
20260830063920 18 213 3.2 9.7 0.00 0.03 0.03 76 1015.5
20260830063912 18 213 4.8 11.3 0.00 0.03 0.03 77 1015.5